| time (UTC) | temp F | wind direction | speed MPH | gust MPH | rain 1hr in | rain 24hr in | rain mn in | humidity % | barometer mb |
| 20260509005818 | 46 | 325 | 4.0 | 7.0 | 0.00 | 0.00 | 0.00 | 100 | 959.9 |
| 20260509005717 | 46 | 324 | 4.0 | 8.0 | 0.00 | 0.00 | 0.00 | 100 | 960.0 |
| 20260509005615 | 46 | 321 | 4.0 | 8.0 | 0.00 | 0.00 | 0.00 | 100 | 960.0 |
| 20260509005412 | 46 | 313 | 4.0 | 8.0 | 0.00 | 0.00 | 0.00 | 100 | 960.0 |
| 20260509005208 | 46 | 314 | 3.0 | 5.0 | 0.00 | 0.00 | 0.00 | 100 | 960.0 |
| 20260509005107 | 46 | 317 | 3.0 | 5.0 | 0.00 | 0.00 | 0.00 | 100 | 959.9 |
| 20260509005005 | 46 | 318 | 3.0 | 6.0 | 0.00 | 0.00 | 0.00 | 100 | 960.0 |
| 20260509004802 | 46 | 320 | 4.0 | 6.0 | 0.00 | 0.00 | 0.00 | 100 | 959.9 |
| 20260509004559 | 46 | 325 | 3.0 | 6.0 | 0.00 | 0.00 | 0.00 | 100 | 960.0 |
| 20260509004458 | 46 | 325 | 3.0 | 5.0 | 0.00 | 0.00 | 0.00 | 100 | 960.1 |
| 20260509004356 | 46 | 326 | 3.0 | 5.0 | 0.00 | 0.00 | 0.00 | 100 | 959.9 |
| 20260509004154 | 46 | 324 | 3.0 | 5.0 | 0.00 | 0.00 | 0.00 | 100 | 960.0 |
| 20260509003950 | 46 | 299 | 2.0 | 4.0 | 0.00 | 0.00 | 0.00 | 100 | 960.0 |
| 20260509003850 | 46 | 274 | 1.0 | 3.0 | 0.00 | 0.00 | 0.00 | 100 | 960.1 |
| 20260509003747 | 46 | 0 | 0.0 | 2.0 | 0.00 | 0.00 | 0.00 | 100 | 960.1 |
| 20260509003544 | 46 | 0 | 0.0 | 2.0 | 0.00 | 0.00 | 0.00 | 100 | 960.1 |
| 20260509003341 | 46 | 0 | 0.0 | 2.0 | 0.00 | 0.00 | 0.00 | 100 | 960.1 |
| 20260509003240 | 46 | 0 | 0.0 | 2.0 | 0.00 | 0.00 | 0.00 | 100 | 960.1 |
| 20260509003138 | 46 | 0 | 0.0 | 2.0 | 0.00 | 0.00 | 0.00 | 100 | 960.1 |
| 20260509002934 | 46 | 0 | 0.0 | 1.0 | 0.00 | 0.00 | 0.00 | 100 | 960.0 |
| 20260509002718 | 46 | 0 | 0.0 | 2.0 | 0.00 | 0.00 | 0.00 | 100 | 960.0 |
| 20260509002618 | 46 | 0 | 0.0 | 2.0 | 0.00 | 0.00 | 0.00 | 100 | 960.0 |
| 20260509002515 | 46 | 0 | 0.0 | 2.0 | 0.00 | 0.00 | 0.00 | 100 | 960.0 |
| 20260509002313 | 46 | 0 | 0.0 | 2.0 | 0.00 | 0.00 | 0.00 | 100 | 960.0 |
| 20260509002109 | 46 | 0 | 0.0 | 2.0 | 0.00 | 0.00 | 0.00 | 100 | 960.2 |
| 20260509002008 | 46 | 0 | 0.0 | 2.0 | 0.00 | 0.00 | 0.00 | 100 | 960.2 |
| 20260509001906 | 46 | 0 | 0.0 | 2.0 | 0.00 | 0.00 | 0.00 | 100 | 960.1 |
| 20260509001702 | 46 | 0 | 0.0 | 2.0 | 0.00 | 0.00 | 0.00 | 100 | 960.2 |
| 20260509001459 | 46 | 0 | 0.0 | 2.0 | 0.00 | 0.00 | 0.00 | 100 | 960.1 |
| 20260509001358 | 46 | 0 | 0.0 | 2.0 | 0.00 | 0.00 | 0.00 | 100 | 960.1 |
| 20260509001255 | 46 | 0 | 0.0 | 2.0 | 0.00 | 0.00 | 0.00 | 100 | 960.1 |
| 20260509001052 | 46 | 0 | 0.0 | 3.0 | 0.00 | 0.00 | 0.00 | 100 | 960.1 |
| 20260509000849 | 46 | 0 | 0.0 | 3.0 | 0.00 | 0.00 | 0.00 | 100 | 960.1 |
| 20260509000749 | 45 | 0 | 0.0 | 3.0 | 0.00 | 0.00 | 0.00 | 100 | 960.2 |
| 20260509000646 | 45 | 0 | 0.0 | 3.0 | 0.00 | 0.00 | 0.00 | 100 | 960.1 |
| 20260509000443 | 46 | 0 | 0.0 | 2.0 | 0.00 | 0.00 | 0.00 | 100 | 960.2 |
| 20260509000241 | 46 | 0 | 0.0 | 2.0 | 0.00 | 0.00 | 0.00 | 100 | 960.2 |
| 20260509000140 | 46 | 0 | 0.0 | 2.0 | 0.00 | 0.00 | 0.00 | 100 | 960.2 |
| 20260509000037 | 46 | 0 | 0.0 | 2.0 | 0.00 | 0.00 | 0.00 | 100 | 960.2 |
| 20260508235835 | 46 | 0 | 0.0 | 2.0 | 0.00 | 0.00 | 0.00 | 100 | 960.3 |
| 20260508235632 | 46 | 0 | 0.0 | 2.0 | 0.00 | 0.00 | 0.00 | 100 | 960.2 |
| 20260508235531 | 46 | 0 | 0.0 | 2.0 | 0.00 | 0.00 | 0.00 | 100 | 960.2 |
| 20260508235428 | 46 | 0 | 0.0 | 3.0 | 0.00 | 0.00 | 0.00 | 100 | 960.2 |
| 20260508235225 | 46 | 0 | 0.0 | 2.0 | 0.00 | 0.00 | 0.00 | 100 | 960.3 |
| 20260508235022 | 45 | 0 | 0.0 | 2.0 | 0.00 | 0.00 | 0.00 | 100 | 960.3 |
| 20260508234922 | 46 | 0 | 0.0 | 2.0 | 0.00 | 0.00 | 0.00 | 100 | 960.3 |
| 20260508234820 | 45 | 0 | 0.0 | 2.0 | 0.00 | 0.00 | 0.00 | 100 | 960.3 |
| 20260508234617 | 46 | 0 | 0.0 | 2.0 | 0.00 | 0.00 | 0.00 | 100 | 960.3 |
| 20260508234415 | 45 | 0 | 0.0 | 2.0 | 0.00 | 0.00 | 0.00 | 100 | 960.3 |
| 20260508234314 | 46 | 0 | 0.0 | 2.0 | 0.00 | 0.00 | 0.00 | 100 | 960.3 |
| 20260508234211 | 46 | 0 | 0.0 | 2.0 | 0.00 | 0.00 | 0.00 | 100 | 960.3 |
| 20260508234008 | 46 | 0 | 0.0 | 2.0 | 0.00 | 0.00 | 0.00 | 100 | 960.3 |
| 20260508233805 | 46 | 0 | 0.0 | 2.0 | 0.00 | 0.00 | 0.00 | 100 | 960.4 |
| 20260508233705 | 46 | 0 | 0.0 | 2.0 | 0.00 | 0.00 | 0.00 | 100 | 960.3 |
| 20260508233602 | 46 | 0 | 0.0 | 2.0 | 0.00 | 0.00 | 0.00 | 100 | 960.4 |
| 20260508233359 | 46 | 0 | 0.0 | 2.0 | 0.00 | 0.00 | 0.00 | 100 | 960.4 |
| 20260508233156 | 46 | 0 | 0.0 | 2.0 | 0.00 | 0.00 | 0.00 | 100 | 960.3 |
| 20260508233055 | 46 | 0 | 0.0 | 2.0 | 0.00 | 0.00 | 0.00 | 100 | 960.3 |
| 20260508232953 | 46 | 0 | 0.0 | 2.0 | 0.00 | 0.00 | 0.00 | 100 | 960.3 |
| 20260508232749 | 46 | 0 | 0.0 | 3.0 | 0.00 | 0.00 | 0.00 | 100 | 960.4 |
| 20260508232546 | 46 | 0 | 1.0 | 3.0 | 0.00 | 0.00 | 0.00 | 100 | 960.3 |
| 20260508232445 | 45 | 0 | 1.0 | 3.0 | 0.00 | 0.00 | 0.00 | 100 | 960.3 |
| 20260508232343 | 46 | 0 | 1.0 | 3.0 | 0.00 | 0.00 | 0.00 | 100 | 960.3 |
| 20260508232140 | 45 | 0 | 1.0 | 3.0 | 0.00 | 0.00 | 0.00 | 100 | 960.4 |
| 20260508231937 | 45 | 0 | 0.0 | 2.0 | 0.00 | 0.00 | 0.00 | 100 | 960.3 |
| 20260508231836 | 45 | 0 | 0.0 | 2.0 | 0.00 | 0.00 | 0.00 | 100 | 960.3 |
| 20260508231734 | 45 | 0 | 0.0 | 2.0 | 0.00 | 0.00 | 0.00 | 100 | 960.4 |
| 20260508231530 | 45 | 0 | 0.0 | 3.0 | 0.00 | 0.00 | 0.00 | 100 | 960.4 |
| 20260508231327 | 45 | 0 | 0.0 | 3.0 | 0.00 | 0.00 | 0.00 | 100 | 960.4 |
| 20260508231227 | 45 | 0 | 0.0 | 3.0 | 0.00 | 0.00 | 0.00 | 100 | 960.3 |
| 20260508231124 | 45 | 0 | 0.0 | 3.0 | 0.00 | 0.00 | 0.00 | 100 | 960.3 |
| 20260508230921 | 45 | 0 | 0.0 | 3.0 | 0.00 | 0.00 | 0.00 | 100 | 960.3 |
| 20260508230718 | 45 | 0 | 0.0 | 3.0 | 0.00 | 0.00 | 0.00 | 100 | 960.2 |
| 20260508230618 | 45 | 0 | 0.0 | 3.0 | 0.00 | 0.00 | 0.00 | 100 | 960.3 |
| 20260508230515 | 45 | 0 | 1.0 | 4.0 | 0.00 | 0.00 | 0.00 | 100 | 960.4 |
| 20260508230312 | 45 | 0 | 1.0 | 4.0 | 0.00 | 0.00 | 0.00 | 100 | 960.4 |
| 20260508230110 | 45 | 0 | 1.0 | 4.0 | 0.00 | 0.00 | 0.00 | 100 | 960.3 |
| 20260508230009 | 45 | 0 | 1.0 | 4.0 | 0.00 | 0.00 | 0.00 | 100 | 960.3 |
| 20260508225907 | 45 | 0 | 1.0 | 3.0 | 0.00 | 0.00 | 0.00 | 100 | 960.3 |
| 20260508225704 | 46 | 0 | 1.0 | 3.0 | 0.00 | 0.00 | 0.00 | 100 | 960.3 |
| 20260508225501 | 46 | 0 | 1.0 | 4.0 | 0.00 | 0.00 | 0.00 | 100 | 960.3 |
| 20260508225400 | 46 | 0 | 1.0 | 4.0 | 0.00 | 0.00 | 0.00 | 100 | 960.3 |
| 20260508225258 | 46 | 0 | 0.0 | 4.0 | 0.00 | 0.00 | 0.00 | 100 | 960.2 |
| 20260508225055 | 46 | 0 | 1.0 | 3.0 | 0.00 | 0.00 | 0.00 | 100 | 960.4 |
| 20260508224851 | 46 | 0 | 1.0 | 3.0 | 0.00 | 0.00 | 0.00 | 100 | 960.3 |
| 20260508224751 | 46 | 0 | 1.0 | 3.0 | 0.00 | 0.00 | 0.00 | 100 | 960.3 |
| 20260508224648 | 46 | 0 | 1.0 | 3.0 | 0.00 | 0.00 | 0.00 | 100 | 960.3 |
| 20260508224445 | 46 | 0 | 1.0 | 3.0 | 0.00 | 0.00 | 0.00 | 100 | 960.3 |
| 20260508224242 | 46 | 0 | 1.0 | 2.0 | 0.00 | 0.00 | 0.00 | 100 | 960.3 |
| 20260508224141 | 45 | 0 | 1.0 | 3.0 | 0.00 | 0.00 | 0.00 | 100 | 960.3 |
| 20260508224038 | 45 | 0 | 1.0 | 3.0 | 0.00 | 0.00 | 0.00 | 100 | 960.3 |
| 20260508223835 | 45 | 0 | 1.0 | 3.0 | 0.00 | 0.00 | 0.00 | 100 | 960.3 |
| 20260508223631 | 45 | 0 | 0.0 | 3.0 | 0.00 | 0.00 | 0.00 | 100 | 960.4 |
| 20260508223531 | 45 | 0 | 0.0 | 2.0 | 0.00 | 0.00 | 0.00 | 100 | 960.3 |
| 20260508223428 | 45 | 0 | 0.0 | 2.0 | 0.00 | 0.00 | 0.00 | 100 | 960.3 |
| 20260508223225 | 45 | 0 | 0.0 | 2.0 | 0.00 | 0.00 | 0.00 | 100 | 960.3 |
| 20260508223022 | 45 | 0 | 0.0 | 2.0 | 0.00 | 0.00 | 0.00 | 100 | 960.3 |
| 20260508222921 | 45 | 0 | 0.0 | 2.0 | 0.00 | 0.00 | 0.00 | 100 | 960.3 |
| 20260508222818 | 45 | 0 | 0.0 | 2.0 | 0.00 | 0.00 | 0.00 | 100 | 960.3 |
| 20260508222615 | 46 | 0 | 0.0 | 1.0 | 0.00 | 0.00 | 0.00 | 100 | 960.3 |
| 20260508222412 | 46 | 0 | 0.0 | 1.0 | 0.00 | 0.00 | 0.00 | 100 | 960.2 |
| 20260508222312 | 46 | 0 | 0.0 | 2.0 | 0.00 | 0.00 | 0.00 | 100 | 960.3 |
| 20260508222209 | 46 | 0 | 0.0 | 2.0 | 0.00 | 0.00 | 0.00 | 100 | 960.3 |
| 20260508222006 | 46 | 198 | 1.0 | 2.0 | 0.00 | 0.00 | 0.00 | 100 | 960.3 |
| 20260508221803 | 46 | 187 | 1.0 | 2.0 | 0.00 | 0.00 | 0.00 | 100 | 960.3 |
| 20260508221702 | 46 | 174 | 1.0 | 2.0 | 0.00 | 0.00 | 0.00 | 100 | 960.3 |
| 20260508221600 | 46 | 149 | 1.0 | 3.0 | 0.00 | 0.00 | 0.00 | 100 | 960.3 |
| 20260508221357 | 45 | 130 | 2.0 | 3.0 | 0.00 | 0.00 | 0.00 | 100 | 960.3 |
| 20260508221154 | 45 | 115 | 3.0 | 4.0 | 0.00 | 0.00 | 0.00 | 100 | 960.4 |
| 20260508221054 | 45 | 109 | 3.0 | 4.0 | 0.00 | 0.00 | 0.00 | 100 | 960.3 |
| 20260508220951 | 45 | 106 | 3.0 | 4.0 | 0.00 | 0.00 | 0.00 | 100 | 960.4 |
| 20260508220748 | 46 | 103 | 2.0 | 3.0 | 0.00 | 0.00 | 0.00 | 100 | 960.5 |
| 20260508220545 | 46 | 95 | 1.0 | 3.0 | 0.00 | 0.00 | 0.00 | 100 | 960.4 |
| 20260508220444 | 46 | 0 | 0.0 | 2.0 | 0.00 | 0.00 | 0.00 | 100 | 960.4 |
| 20260508220341 | 46 | 0 | 0.0 | 2.0 | 0.00 | 0.00 | 0.00 | 100 | 960.3 |
| 20260508220138 | 46 | 0 | 0.0 | 2.0 | 0.00 | 0.00 | 0.00 | 100 | 960.3 |
| 20260508215935 | 46 | 0 | 0.0 | 2.0 | 0.00 | 0.00 | 0.00 | 100 | 960.3 |
| 20260508215835 | 46 | 0 | 0.0 | 2.0 | 0.00 | 0.00 | 0.00 | 100 | 960.2 |
| 20260508215732 | 46 | 0 | 0.0 | 2.0 | 0.00 | 0.00 | 0.00 | 100 | 960.3 |
| 20260508215529 | 46 | 0 | 0.0 | 2.0 | 0.00 | 0.00 | 0.00 | 100 | 960.3 |
| 20260508215326 | 46 | 0 | 0.0 | 2.0 | 0.00 | 0.00 | 0.00 | 100 | 960.4 |
| 20260508215225 | 46 | 0 | 0.0 | 2.0 | 0.00 | 0.00 | 0.00 | 100 | 960.3 |
| 20260508215123 | 46 | 0 | 0.0 | 2.0 | 0.00 | 0.00 | 0.00 | 100 | 960.3 |
| 20260508214920 | 47 | 0 | 0.0 | 2.0 | 0.00 | 0.00 | 0.00 | 100 | 960.2 |
| 20260508214706 | 47 | 0 | 0.0 | 2.0 | 0.00 | 0.00 | 0.00 | 100 | 960.3 |
| 20260508214605 | 47 | 0 | 0.0 | 2.0 | 0.00 | 0.00 | 0.00 | 100 | 960.2 |
| 20260508214503 | 47 | 0 | 0.0 | 1.0 | 0.00 | 0.00 | 0.00 | 100 | 960.2 |
| 20260508214258 | 47 | 0 | 0.0 | 1.0 | 0.00 | 0.00 | 0.00 | 100 | 960.2 |
| 20260508214055 | 47 | 0 | 0.0 | 1.0 | 0.00 | 0.00 | 0.00 | 100 | 960.2 |
| 20260508213954 | 47 | 0 | 0.0 | 2.0 | 0.00 | 0.00 | 0.00 | 100 | 960.2 |
| 20260508213852 | 47 | 227 | 0.0 | 2.0 | 0.00 | 0.00 | 0.00 | 100 | 960.2 |
| 20260508213649 | 47 | 232 | 0.0 | 2.0 | 0.00 | 0.00 | 0.00 | 100 | 960.2 |
| 20260508213446 | 47 | 0 | 0.0 | 2.0 | 0.00 | 0.00 | 0.00 | 100 | 960.3 |
| 20260508213346 | 47 | 0 | 0.0 | 2.0 | 0.00 | 0.00 | 0.00 | 100 | 960.3 |
| 20260508213243 | 47 | 0 | 0.0 | 2.0 | 0.00 | 0.00 | 0.00 | 100 | 960.2 |
| 20260508213041 | 48 | 0 | 0.0 | 2.0 | 0.00 | 0.00 | 0.00 | 100 | 960.2 |
| 20260508212837 | 48 | 243 | 0.0 | 2.0 | 0.00 | 0.00 | 0.00 | 100 | 960.2 |
| 20260508212736 | 48 | 239 | 0.0 | 2.0 | 0.00 | 0.00 | 0.00 | 100 | 960.2 |
| 20260508212634 | 48 | 0 | 1.0 | 2.0 | 0.00 | 0.00 | 0.00 | 100 | 960.2 |
| 20260508212431 | 48 | 236 | 1.0 | 2.0 | 0.00 | 0.00 | 0.00 | 100 | 960.2 |
| 20260508212228 | 48 | 244 | 1.0 | 2.0 | 0.00 | 0.00 | 0.00 | 100 | 960.1 |
| 20260508212127 | 48 | 0 | 0.0 | 2.0 | 0.00 | 0.00 | 0.00 | 100 | 960.2 |
| 20260508212024 | 48 | 0 | 0.0 | 2.0 | 0.00 | 0.00 | 0.00 | 100 | 960.2 |
| 20260508211822 | 48 | 0 | 0.0 | 1.0 | 0.00 | 0.00 | 0.00 | 100 | 960.2 |
| 20260508211619 | 48 | 0 | 0.0 | 2.0 | 0.00 | 0.00 | 0.00 | 100 | 960.2 |
| 20260508211518 | 48 | 0 | 0.0 | 2.0 | 0.00 | 0.00 | 0.00 | 100 | 960.2 |
| 20260508211415 | 48 | 0 | 0.0 | 2.0 | 0.00 | 0.00 | 0.00 | 100 | 960.1 |
| 20260508211212 | 48 | 260 | 1.0 | 2.0 | 0.00 | 0.00 | 0.00 | 100 | 960.2 |
| 20260508211009 | 48 | 276 | 2.0 | 3.0 | 0.00 | 0.00 | 0.00 | 100 | 960.2 |
| 20260508210909 | 48 | 278 | 2.0 | 4.0 | 0.00 | 0.00 | 0.00 | 100 | 960.2 |
| 20260508210806 | 48 | 280 | 2.0 | 4.0 | 0.00 | 0.00 | 0.00 | 100 | 960.2 |
| 20260508210603 | 48 | 277 | 2.0 | 4.0 | 0.00 | 0.00 | 0.00 | 100 | 960.2 |
| 20260508210400 | 48 | 281 | 2.0 | 4.0 | 0.00 | 0.00 | 0.00 | 100 | 960.3 |
| 20260508210259 | 48 | 283 | 3.0 | 4.0 | 0.00 | 0.00 | 0.00 | 100 | 960.2 |
| 20260508210156 | 48 | 289 | 3.0 | 4.0 | 0.00 | 0.00 | 0.00 | 100 | 960.2 |
| 20260508205953 | 48 | 290 | 3.0 | 4.0 | 0.00 | 0.00 | 0.00 | 100 | 960.3 |
| 20260508205750 | 48 | 282 | 3.0 | 4.0 | 0.00 | 0.00 | 0.00 | 100 | 960.2 |
| 20260508205649 | 48 | 277 | 2.0 | 4.0 | 0.00 | 0.00 | 0.00 | 100 | 960.2 |
| 20260508205547 | 48 | 277 | 2.0 | 4.0 | 0.00 | 0.00 | 0.00 | 100 | 960.2 |
| 20260508205343 | 48 | 280 | 2.0 | 4.0 | 0.00 | 0.00 | 0.00 | 100 | 960.3 |
| 20260508205141 | 48 | 283 | 2.0 | 4.0 | 0.00 | 0.00 | 0.00 | 100 | 960.2 |
| 20260508205041 | 48 | 286 | 2.0 | 3.0 | 0.00 | 0.00 | 0.00 | 100 | 960.3 |
| 20260508204938 | 48 | 291 | 2.0 | 3.0 | 0.00 | 0.00 | 0.00 | 100 | 960.1 |
| 20260508204735 | 48 | 277 | 1.0 | 4.0 | 0.00 | 0.00 | 0.00 | 100 | 960.3 |
| 20260508204531 | 48 | 262 | 2.0 | 4.0 | 0.00 | 0.00 | 0.00 | 100 | 960.2 |
| 20260508204430 | 48 | 269 | 2.0 | 4.0 | 0.00 | 0.00 | 0.00 | 100 | 960.2 |
| 20260508204328 | 48 | 281 | 2.0 | 4.0 | 0.00 | 0.00 | 0.00 | 100 | 960.2 |
| 20260508204125 | 48 | 287 | 2.0 | 4.0 | 0.00 | 0.00 | 0.00 | 100 | 960.2 |
| 20260508203921 | 48 | 291 | 2.0 | 3.0 | 0.00 | 0.00 | 0.00 | 100 | 960.2 |
| 20260508203821 | 48 | 296 | 2.0 | 2.0 | 0.00 | 0.00 | 0.00 | 100 | 960.2 |
| 20260508203718 | 48 | 304 | 2.0 | 2.0 | 0.00 | 0.00 | 0.00 | 100 | 960.2 |
| 20260508203515 | 48 | 306 | 1.0 | 2.0 | 0.00 | 0.00 | 0.00 | 100 | 960.2 |
| 20260508203312 | 48 | 283 | 1.0 | 2.0 | 0.00 | 0.00 | 0.00 | 100 | 960.2 |
| 20260508203211 | 48 | 260 | 0.0 | 2.0 | 0.00 | 0.00 | 0.00 | 100 | 960.2 |
| 20260508203109 | 48 | 262 | 1.0 | 3.0 | 0.00 | 0.00 | 0.00 | 100 | 960.2 |
| 20260508202906 | 48 | 285 | 1.0 | 3.0 | 0.00 | 0.00 | 0.00 | 100 | 960.1 |
| 20260508202703 | 48 | 302 | 2.0 | 3.0 | 0.00 | 0.00 | 0.00 | 100 | 960.1 |
| 20260508202602 | 48 | 299 | 1.0 | 2.0 | 0.00 | 0.00 | 0.00 | 100 | 960.2 |
| 20260508202459 | 48 | 290 | 1.0 | 2.0 | 0.00 | 0.00 | 0.00 | 100 | 960.1 |
| 20260508202256 | 49 | 272 | 1.0 | 1.0 | 0.00 | 0.00 | 0.00 | 100 | 960.0 |
| 20260508202053 | 49 | 0 | 0.0 | 2.0 | 0.00 | 0.00 | 0.00 | 100 | 960.0 |
| 20260508201952 | 49 | 0 | 0.0 | 2.0 | 0.00 | 0.00 | 0.00 | 100 | 960.1 |
| 20260508201850 | 49 | 0 | 0.0 | 2.0 | 0.00 | 0.00 | 0.00 | 100 | 960.1 |
| 20260508201647 | 49 | 0 | 0.0 | 1.0 | 0.00 | 0.00 | 0.00 | 100 | 960.1 |
| 20260508201444 | 49 | 0 | 0.0 | 1.0 | 0.00 | 0.00 | 0.00 | 100 | 960.1 |
| 20260508201343 | 49 | 0 | 0.0 | 1.0 | 0.00 | 0.00 | 0.00 | 100 | 960.1 |
| 20260508201240 | 49 | 0 | 0.0 | 1.0 | 0.00 | 0.00 | 0.00 | 100 | 960.1 |
| 20260508201037 | 48 | 0 | 0.0 | 1.0 | 0.00 | 0.00 | 0.00 | 100 | 960.2 |
| 20260508200834 | 48 | 0 | 0.0 | 1.0 | 0.00 | 0.00 | 0.00 | 100 | 960.1 |
| 20260508200734 | 48 | 0 | 0.0 | 1.0 | 0.00 | 0.00 | 0.00 | 100 | 960.2 |
| 20260508200632 | 48 | 0 | 0.0 | 1.0 | 0.00 | 0.00 | 0.00 | 100 | 960.2 |
| 20260508200428 | 48 | 0 | 0.0 | 1.0 | 0.00 | 0.00 | 0.00 | 100 | 960.2 |
| 20260508200226 | 48 | 0 | 0.0 | 1.0 | 0.00 | 0.00 | 0.00 | 100 | 960.2 |
| 20260508200125 | 48 | 0 | 0.0 | 1.0 | 0.00 | 0.00 | 0.00 | 100 | 960.1 |
| 20260508200022 | 48 | 0 | 0.0 | 1.0 | 0.00 | 0.00 | 0.00 | 100 | 960.1 |
| 20260508195819 | 48 | 0 | 0.0 | 1.0 | 0.00 | 0.00 | 0.00 | 100 | 960.1 |
| 20260508195616 | 48 | 0 | 0.0 | 1.0 | 0.00 | 0.00 | 0.00 | 100 | 960.1 |
| 20260508195515 | 48 | 0 | 0.0 | 1.0 | 0.00 | 0.00 | 0.00 | 100 | 960.1 |
| 20260508195413 | 48 | 0 | 0.0 | 1.0 | 0.00 | 0.00 | 0.00 | 100 | 960.1 |
| 20260508195210 | 48 | 0 | 0.0 | 1.0 | 0.00 | 0.00 | 0.00 | 100 | 960.1 |
| 20260508195007 | 48 | 0 | 0.0 | 1.0 | 0.00 | 0.00 | 0.00 | 100 | 960.1 |
| 20260508194906 | 48 | 0 | 0.0 | 1.0 | 0.00 | 0.00 | 0.00 | 100 | 960.1 |
| 20260508194804 | 48 | 0 | 0.0 | 1.0 | 0.00 | 0.00 | 0.00 | 100 | 960.1 |
| 20260508194601 | 48 | 0 | 0.0 | 1.0 | 0.00 | 0.00 | 0.00 | 100 | 960.1 |
| 20260508194358 | 48 | 0 | 0.0 | 1.0 | 0.00 | 0.00 | 0.00 | 100 | 960.2 |
| 20260508194257 | 48 | 0 | 0.0 | 1.0 | 0.00 | 0.00 | 0.00 | 100 | 960.1 |
| 20260508194155 | 48 | 0 | 0.0 | 1.0 | 0.00 | 0.00 | 0.00 | 100 | 960.1 |
| 20260508193952 | 48 | 0 | 0.0 | 1.0 | 0.00 | 0.00 | 0.00 | 100 | 960.1 |
| 20260508193749 | 48 | 0 | 0.0 | 2.0 | 0.00 | 0.00 | 0.00 | 100 | 960.1 |
| 20260508193648 | 48 | 0 | 0.0 | 2.0 | 0.00 | 0.00 | 0.00 | 100 | 960.2 |
| 20260508193546 | 48 | 0 | 0.0 | 2.0 | 0.00 | 0.00 | 0.00 | 100 | 960.1 |
| 20260508193343 | 48 | 0 | 0.0 | 2.0 | 0.00 | 0.00 | 0.00 | 100 | 960.1 |
| 20260508193140 | 48 | 0 | 0.0 | 2.0 | 0.00 | 0.00 | 0.00 | 100 | 960.0 |
| 20260508193039 | 47 | 0 | 0.0 | 2.0 | 0.00 | 0.00 | 0.00 | 100 | 960.1 |
| 20260508192937 | 47 | 0 | 0.0 | 2.0 | 0.00 | 0.00 | 0.00 | 100 | 960.1 |
| 20260508192733 | 48 | 0 | 0.0 | 2.0 | 0.00 | 0.00 | 0.00 | 100 | 960.0 |
| 20260508192530 | 47 | 0 | 0.0 | 2.0 | 0.00 | 0.00 | 0.00 | 100 | 960.1 |
| 20260508192430 | 47 | 0 | 0.0 | 2.0 | 0.00 | 0.00 | 0.00 | 100 | 960.1 |
| 20260508192327 | 47 | 0 | 0.0 | 2.0 | 0.00 | 0.00 | 0.00 | 100 | 960.1 |
| 20260508192124 | 47 | 0 | 0.0 | 2.0 | 0.00 | 0.00 | 0.00 | 100 | 960.1 |
| 20260508191921 | 47 | 0 | 0.0 | 1.0 | 0.00 | 0.00 | 0.00 | 100 | 960.0 |
| 20260508191820 | 47 | 0 | 0.0 | 1.0 | 0.00 | 0.00 | 0.00 | 100 | 960.0 |
| 20260508191718 | 47 | 0 | 0.0 | 1.0 | 0.00 | 0.00 | 0.00 | 100 | 960.1 |
| 20260508191514 | 47 | 0 | 0.0 | 2.0 | 0.00 | 0.00 | 0.00 | 100 | 960.1 |
| 20260508191311 | 47 | 0 | 1.0 | 3.0 | 0.00 | 0.00 | 0.00 | 100 | 960.0 |
| 20260508191107 | 47 | 185 | 1.0 | 3.0 | 0.00 | 0.00 | 0.00 | 100 | 960.0 |
| 20260508190851 | 47 | 152 | 3.0 | 5.0 | 0.00 | 0.00 | 0.00 | 100 | 960.0 |
| 20260508190648 | 47 | 146 | 3.0 | 5.0 | 0.00 | 0.00 | 0.00 | 100 | 960.0 |
| 20260508190547 | 47 | 145 | 3.0 | 5.0 | 0.00 | 0.00 | 0.00 | 100 | 960.0 |
| 20260508190444 | 47 | 148 | 2.0 | 4.0 | 0.00 | 0.00 | 0.00 | 100 | 959.9 |
| 20260508190241 | 48 | 175 | 1.0 | 2.0 | 0.00 | 0.00 | 0.00 | 100 | 960.0 |
| 20260508190038 | 48 | 0 | 0.0 | 2.0 | 0.00 | 0.00 | 0.00 | 100 | 960.0 |
| 20260508185938 | 48 | 0 | 0.0 | 2.0 | 0.00 | 0.00 | 0.00 | 100 | 959.9 |
| 20260508185835 | 48 | 0 | 0.0 | 1.0 | 0.00 | 0.00 | 0.00 | 100 | 959.9 |
| 20260508185632 | 48 | 0 | 0.0 | 1.0 | 0.00 | 0.00 | 0.00 | 100 | 959.9 |
| 20260508185429 | 48 | 0 | 0.0 | 1.0 | 0.00 | 0.00 | 0.00 | 100 | 959.9 |
| 20260508185327 | 48 | 0 | 0.0 | 1.0 | 0.00 | 0.00 | 0.00 | 100 | 959.9 |
| 20260508185225 | 48 | 0 | 0.0 | 1.0 | 0.00 | 0.00 | 0.00 | 100 | 959.8 |
| 20260508185023 | 48 | 0 | 0.0 | 1.0 | 0.00 | 0.00 | 0.00 | 100 | 959.8 |
| 20260508184820 | 48 | 0 | 0.0 | 1.0 | 0.00 | 0.00 | 0.00 | 100 | 959.7 |
| 20260508184719 | 49 | 0 | 0.0 | 2.0 | 0.00 | 0.00 | 0.00 | 100 | 959.8 |
| 20260508184617 | 48 | 0 | 0.0 | 2.0 | 0.00 | 0.00 | 0.00 | 100 | 959.8 |
| 20260508184413 | 48 | 0 | 0.0 | 2.0 | 0.00 | 0.00 | 0.00 | 100 | 959.8 |
| 20260508184210 | 48 | 0 | 0.0 | 1.0 | 0.00 | 0.00 | 0.00 | 100 | 959.7 |
| 20260508184109 | 48 | 0 | 0.0 | 1.0 | 0.00 | 0.00 | 0.00 | 100 | 959.7 |
| 20260508184007 | 48 | 0 | 0.0 | 1.0 | 0.00 | 0.00 | 0.00 | 100 | 959.7 |
| 20260508183804 | 48 | 0 | 0.0 | 1.0 | 0.00 | 0.00 | 0.00 | 100 | 959.7 |
| 20260508183602 | 49 | 260 | 0.0 | 2.0 | 0.00 | 0.00 | 0.00 | 100 | 959.7 |
| 20260508183501 | 49 | 260 | 1.0 | 2.0 | 0.00 | 0.00 | 0.00 | 100 | 959.7 |
| 20260508183359 | 49 | 258 | 1.0 | 2.0 | 0.00 | 0.00 | 0.00 | 100 | 959.6 |
| 20260508183156 | 48 | 0 | 0.0 | 2.0 | 0.00 | 0.00 | 0.00 | 100 | 959.7 |
| 20260508182953 | 48 | 0 | 0.0 | 1.0 | 0.00 | 0.00 | 0.00 | 100 | 959.7 |
| 20260508182852 | 48 | 0 | 0.0 | 1.0 | 0.00 | 0.00 | 0.00 | 100 | 959.7 |
| 20260508182750 | 48 | 0 | 0.0 | 1.0 | 0.00 | 0.00 | 0.00 | 100 | 959.7 |
| 20260508182547 | 48 | 0 | 0.0 | 1.0 | 0.00 | 0.00 | 0.00 | 100 | 959.6 |
| 20260508182344 | 48 | 0 | 0.0 | 2.0 | 0.00 | 0.00 | 0.00 | 100 | 959.6 |
| 20260508182244 | 48 | 0 | 0.0 | 2.0 | 0.00 | 0.00 | 0.00 | 100 | 959.6 |
| 20260508182141 | 48 | 0 | 0.0 | 1.0 | 0.00 | 0.00 | 0.00 | 100 | 959.7 |
| 20260508181938 | 48 | 325 | 1.0 | 3.0 | 0.00 | 0.00 | 0.00 | 100 | 959.7 |
| 20260508181735 | 48 | 332 | 2.0 | 4.0 | 0.00 | 0.00 | 0.00 | 100 | 959.6 |
| 20260508181635 | 48 | 334 | 2.0 | 4.0 | 0.00 | 0.00 | 0.00 | 100 | 959.6 |
| 20260508181532 | 48 | 343 | 2.0 | 4.0 | 0.00 | 0.00 | 0.00 | 100 | 959.6 |
| 20260508181329 | 48 | 353 | 2.0 | 3.0 | 0.00 | 0.00 | 0.00 | 100 | 959.4 |
| 20260508181126 | 48 | 351 | 2.0 | 3.0 | 0.00 | 0.00 | 0.00 | 100 | 959.5 |
| 20260508181025 | 48 | 349 | 2.0 | 3.0 | 0.00 | 0.00 | 0.00 | 100 | 959.5 |
| 20260508180923 | 48 | 349 | 2.0 | 3.0 | 0.00 | 0.00 | 0.00 | 100 | 959.4 |
| 20260508180719 | 49 | 351 | 3.0 | 4.0 | 0.00 | 0.00 | 0.00 | 100 | 959.4 |
| 20260508180516 | 49 | 349 | 3.0 | 5.0 | 0.00 | 0.00 | 0.00 | 100 | 959.5 |
| 20260508180415 | 49 | 346 | 3.0 | 6.0 | 0.00 | 0.00 | 0.00 | 100 | 959.3 |
| 20260508180313 | 49 | 346 | 3.0 | 6.0 | 0.00 | 0.00 | 0.00 | 100 | 959.4 |
| 20260508180110 | 49 | 348 | 3.0 | 6.0 | 0.00 | 0.00 | 0.00 | 100 | 959.4 |
| 20260508175906 | 49 | 350 | 3.0 | 4.0 | 0.00 | 0.00 | 0.00 | 100 | 959.5 |
| 20260508175806 | 49 | 348 | 3.0 | 5.0 | 0.00 | 0.00 | 0.00 | 100 | 959.3 |
| 20260508175704 | 49 | 346 | 4.0 | 6.0 | 0.00 | 0.00 | 0.00 | 100 | 959.3 |
| 20260508175501 | 49 | 342 | 4.0 | 5.0 | 0.00 | 0.00 | 0.00 | 100 | 959.3 |
| 20260508175257 | 49 | 330 | 3.0 | 5.0 | 0.00 | 0.00 | 0.00 | 100 | 959.3 |
| 20260508175157 | 49 | 328 | 3.0 | 7.0 | 0.00 | 0.00 | 0.00 | 100 | 959.4 |
| 20260508175054 | 49 | 332 | 4.0 | 7.0 | 0.00 | 0.00 | 0.00 | 100 | 959.4 |
| 20260508174851 | 49 | 339 | 4.0 | 7.0 | 0.00 | 0.00 | 0.00 | 100 | 959.4 |
| 20260508174648 | 49 | 340 | 5.0 | 7.0 | 0.00 | 0.00 | 0.00 | 100 | 959.4 |
| 20260508174547 | 49 | 343 | 5.0 | 7.0 | 0.00 | 0.00 | 0.00 | 100 | 959.4 |
| 20260508174445 | 49 | 344 | 5.0 | 7.0 | 0.00 | 0.00 | 0.00 | 100 | 959.5 |
| 20260508174241 | 49 | 345 | 4.0 | 8.0 | 0.00 | 0.00 | 0.00 | 100 | 959.4 |
| 20260508174038 | 49 | 341 | 4.0 | 8.0 | 0.00 | 0.00 | 0.00 | 100 | 959.4 |
| 20260508173938 | 49 | 341 | 4.0 | 6.0 | 0.00 | 0.00 | 0.00 | 100 | 959.3 |
| 20260508173835 | 49 | 342 | 4.0 | 7.0 | 0.00 | 0.00 | 0.00 | 100 | 959.4 |
| 20260508173632 | 49 | 344 | 5.0 | 8.0 | 0.00 | 0.00 | 0.00 | 100 | 959.4 |
| 20260508173429 | 49 | 341 | 4.0 | 8.0 | 0.00 | 0.00 | 0.00 | 100 | 959.5 |
| 20260508173328 | 49 | 340 | 4.0 | 8.0 | 0.00 | 0.00 | 0.00 | 100 | 959.5 |
| 20260508173226 | 49 | 333 | 3.0 | 6.0 | 0.00 | 0.00 | 0.00 | 100 | 959.5 |
| 20260508173022 | 49 | 346 | 3.0 | 5.0 | 0.00 | 0.00 | 0.00 | 100 | 959.4 |
| 20260508172819 | 49 | 349 | 3.0 | 5.0 | 0.00 | 0.00 | 0.00 | 100 | 959.4 |
| 20260508172718 | 49 | 353 | 3.0 | 5.0 | 0.00 | 0.00 | 0.00 | 100 | 959.4 |
| 20260508172616 | 49 | 354 | 4.0 | 6.0 | 0.00 | 0.00 | 0.00 | 100 | 959.3 |
| 20260508172412 | 49 | 357 | 4.0 | 6.0 | 0.00 | 0.00 | 0.00 | 100 | 959.3 |
| 20260508172209 | 49 | 0 | 3.0 | 5.0 | 0.00 | 0.00 | 0.00 | 100 | 959.2 |
| 20260508172109 | 49 | 359 | 3.0 | 5.0 | 0.00 | 0.00 | 0.00 | 100 | 959.3 |
| 20260508172006 | 49 | 0 | 3.0 | 5.0 | 0.00 | 0.00 | 0.00 | 100 | 959.3 |
| 20260508171803 | 49 | 358 | 4.0 | 6.0 | 0.00 | 0.00 | 0.00 | 100 | 959.2 |
| 20260508171600 | 49 | 359 | 5.0 | 8.0 | 0.00 | 0.00 | 0.00 | 100 | 959.3 |
| 20260508171459 | 49 | 1 | 5.0 | 8.0 | 0.00 | 0.00 | 0.00 | 100 | 959.2 |
| 20260508171357 | 49 | 1 | 5.0 | 8.0 | 0.00 | 0.00 | 0.00 | 100 | 959.2 |
| 20260508171154 | 49 | 359 | 5.0 | 7.0 | 0.00 | 0.00 | 0.00 | 100 | 959.3 |
| 20260508170951 | 49 | 358 | 5.0 | 7.0 | 0.00 | 0.00 | 0.00 | 100 | 959.3 |
| 20260508170748 | 49 | 0 | 5.0 | 7.0 | 0.00 | 0.00 | 0.00 | 100 | 959.3 |
| 20260508170545 | 49 | 358 | 5.0 | 7.0 | 0.00 | 0.00 | 0.00 | 100 | 959.4 |
| 20260508170341 | 49 | 357 | 5.0 | 7.0 | 0.00 | 0.00 | 0.00 | 100 | 959.3 |
| 20260508170241 | 49 | 359 | 5.0 | 7.0 | 0.00 | 0.00 | 0.00 | 100 | 959.2 |
| 20260508170138 | 49 | 359 | 5.0 | 7.0 | 0.00 | 0.00 | 0.00 | 100 | 959.2 |
| 20260508165936 | 49 | 355 | 5.0 | 8.0 | 0.00 | 0.00 | 0.00 | 100 | 959.3 |
| 20260508165733 | 49 | 358 | 6.0 | 10.0 | 0.00 | 0.00 | 0.00 | 100 | 959.2 |
| 20260508165632 | 49 | 358 | 7.0 | 10.0 | 0.00 | 0.00 | 0.00 | 100 | 959.3 |
| 20260508165529 | 49 | 358 | 7.0 | 10.0 | 0.00 | 0.00 | 0.00 | 100 | 959.2 |
| 20260508165326 | 49 | 357 | 7.0 | 10.0 | 0.00 | 0.00 | 0.00 | 100 | 959.3 |
| 20260508165123 | 49 | 358 | 7.0 | 10.0 | 0.00 | 0.00 | 0.00 | 100 | 959.2 |
| 20260508165022 | 49 | 357 | 7.0 | 10.0 | 0.00 | 0.00 | 0.00 | 100 | 959.1 |
| 20260508164919 | 49 | 356 | 8.0 | 10.0 | 0.00 | 0.00 | 0.00 | 100 | 959.2 |
| 20260508164716 | 49 | 352 | 8.0 | 10.0 | 0.00 | 0.00 | 0.00 | 100 | 959.2 |
| 20260508164513 | 49 | 353 | 6.0 | 10.0 | 0.00 | 0.00 | 0.00 | 100 | 959.2 |
| 20260508164413 | 49 | 353 | 5.0 | 10.0 | 0.00 | 0.00 | 0.00 | 100 | 959.2 |
| 20260508164310 | 49 | 353 | 5.0 | 8.0 | 0.00 | 0.00 | 0.00 | 100 | 959.1 |
| 20260508164107 | 49 | 349 | 6.0 | 10.0 | 0.00 | 0.00 | 0.00 | 100 | 959.1 |
| 20260508163904 | 49 | 350 | 7.0 | 10.0 | 0.00 | 0.00 | 0.00 | 100 | 959.2 |
| 20260508163803 | 49 | 352 | 7.0 | 10.0 | 0.00 | 0.00 | 0.00 | 100 | 959.2 |
| 20260508163700 | 49 | 356 | 7.0 | 10.0 | 0.00 | 0.00 | 0.00 | 100 | 959.1 |
| 20260508163457 | 49 | 1 | 7.0 | 11.0 | 0.00 | 0.00 | 0.00 | 100 | 959.1 |
| 20260508163254 | 49 | 2 | 7.0 | 10.0 | 0.00 | 0.00 | 0.00 | 100 | 959.1 |
| 20260508163154 | 49 | 1 | 7.0 | 10.0 | 0.00 | 0.00 | 0.00 | 100 | 959.1 |
| 20260508163051 | 49 | 2 | 6.0 | 10.0 | 0.00 | 0.00 | 0.00 | 100 | 959.1 |
| 20260508162837 | 49 | 348 | 5.0 | 9.0 | 0.00 | 0.00 | 0.00 | 100 | 959.1 |
| 20260508162635 | 49 | 346 | 4.0 | 9.0 | 0.00 | 0.00 | 0.00 | 100 | 959.1 |
| 20260508162534 | 49 | 348 | 4.0 | 7.0 | 0.00 | 0.00 | 0.00 | 100 | 959.2 |
| 20260508162432 | 49 | 352 | 4.0 | 7.0 | 0.00 | 0.00 | 0.00 | 100 | 959.2 |
| 20260508162229 | 49 | 342 | 4.0 | 7.0 | 0.00 | 0.00 | 0.00 | 100 | 959.1 |
| 20260508162026 | 49 | 336 | 4.0 | 7.0 | 0.00 | 0.00 | 0.00 | 100 | 959.1 |
| 20260508161925 | 49 | 339 | 4.0 | 7.0 | 0.00 | 0.00 | 0.00 | 100 | 959.1 |
| 20260508161823 | 49 | 351 | 4.0 | 7.0 | 0.00 | 0.00 | 0.00 | 100 | 959.1 |
| 20260508161620 | 49 | 354 | 5.0 | 7.0 | 0.00 | 0.00 | 0.00 | 100 | 959.0 |
| 20260508161417 | 49 | 349 | 6.0 | 8.0 | 0.00 | 0.00 | 0.00 | 100 | 959.0 |
| 20260508161315 | 49 | 347 | 6.0 | 9.0 | 0.00 | 0.00 | 0.00 | 100 | 959.1 |
| 20260508161213 | 49 | 345 | 6.0 | 9.0 | 0.00 | 0.00 | 0.00 | 100 | 959.0 |
| 20260508161010 | 50 | 340 | 6.0 | 10.0 | 0.00 | 0.00 | 0.00 | 100 | 959.1 |
| 20260508160807 | 50 | 338 | 6.0 | 10.0 | 0.00 | 0.00 | 0.00 | 100 | 959.0 |
| 20260508160706 | 50 | 337 | 6.0 | 10.0 | 0.00 | 0.00 | 0.00 | 100 | 959.0 |
| 20260508160603 | 50 | 338 | 5.0 | 10.0 | 0.00 | 0.00 | 0.00 | 100 | 959.0 |
| 20260508160400 | 50 | 336 | 6.0 | 10.0 | 0.00 | 0.00 | 0.00 | 100 | 959.0 |
| 20260508160157 | 50 | 339 | 6.0 | 10.0 | 0.00 | 0.00 | 0.00 | 100 | 959.1 |
| 20260508160056 | 50 | 340 | 6.0 | 10.0 | 0.00 | 0.00 | 0.00 | 100 | 959.0 |
| 20260508155954 | 50 | 341 | 6.0 | 10.0 | 0.00 | 0.00 | 0.00 | 100 | 959.0 |
| 20260508155750 | 50 | 347 | 6.0 | 10.0 | 0.00 | 0.00 | 0.00 | 100 | 959.0 |
| 20260508155547 | 50 | 355 | 6.0 | 10.0 | 0.00 | 0.00 | 0.00 | 100 | 959.0 |
| 20260508155447 | 50 | 354 | 7.0 | 10.0 | 0.00 | 0.00 | 0.00 | 100 | 959.0 |
| 20260508155345 | 50 | 350 | 6.0 | 10.0 | 0.00 | 0.00 | 0.00 | 100 | 959.0 |
| 20260508155141 | 49 | 345 | 6.0 | 10.0 | 0.00 | 0.00 | 0.00 | 100 | 959.0 |
| 20260508154938 | 50 | 347 | 6.0 | 12.0 | 0.00 | 0.00 | 0.00 | 100 | 959.0 |
| 20260508154837 | 50 | 348 | 7.0 | 13.0 | 0.00 | 0.00 | 0.00 | 100 | 959.0 |
| 20260508154735 | 50 | 350 | 8.0 | 13.0 | 0.00 | 0.00 | 0.00 | 100 | 959.1 |
| 20260508154532 | 50 | 345 | 8.0 | 13.0 | 0.00 | 0.00 | 0.00 | 100 | 959.0 |
| 20260508154329 | 50 | 342 | 7.0 | 12.0 | 0.00 | 0.00 | 0.00 | 100 | 959.0 |
| 20260508154228 | 50 | 345 | 7.0 | 12.0 | 0.00 | 0.00 | 0.00 | 100 | 959.0 |
| 20260508154126 | 50 | 345 | 7.0 | 11.0 | 0.00 | 0.00 | 0.00 | 100 | 959.0 |
| 20260508153923 | 50 | 346 | 7.0 | 12.0 | 0.00 | 0.00 | 0.00 | 100 | 959.1 |
| 20260508153720 | 50 | 345 | 6.0 | 12.0 | 0.00 | 0.00 | 0.00 | 100 | 959.0 |
| 20260508153619 | 50 | 344 | 6.0 | 10.0 | 0.00 | 0.00 | 0.00 | 100 | 959.1 |
| 20260508153516 | 50 | 344 | 6.0 | 10.0 | 0.00 | 0.00 | 0.00 | 100 | 959.0 |
| 20260508153314 | 50 | 345 | 6.0 | 10.0 | 0.00 | 0.00 | 0.00 | 100 | 959.0 |
| 20260508153110 | 50 | 344 | 4.0 | 9.0 | 0.00 | 0.00 | 0.00 | 100 | 959.0 |
| 20260508153009 | 50 | 344 | 5.0 | 9.0 | 0.00 | 0.00 | 0.00 | 100 | 959.0 |
| 20260508152907 | 50 | 343 | 5.0 | 9.0 | 0.00 | 0.00 | 0.00 | 100 | 959.1 |
| 20260508152703 | 50 | 342 | 4.0 | 8.0 | 0.00 | 0.00 | 0.00 | 100 | 959.0 |
| 20260508152500 | 50 | 343 | 5.0 | 10.0 | 0.00 | 0.00 | 0.00 | 100 | 959.1 |
| 20260508152359 | 50 | 343 | 6.0 | 10.0 | 0.00 | 0.00 | 0.00 | 100 | 959.1 |
| 20260508152257 | 50 | 349 | 6.0 | 10.0 | 0.00 | 0.00 | 0.00 | 100 | 959.1 |
| 20260508152054 | 50 | 350 | 6.0 | 10.0 | 0.00 | 0.00 | 0.00 | 100 | 959.0 |
| 20260508151851 | 50 | 346 | 6.0 | 11.0 | 0.00 | 0.00 | 0.00 | 100 | 959.0 |
| 20260508151750 | 50 | 345 | 6.0 | 11.0 | 0.00 | 0.00 | 0.00 | 100 | 959.0 |
| 20260508151647 | 50 | 346 | 6.0 | 11.0 | 0.00 | 0.00 | 0.00 | 100 | 959.0 |
| 20260508151444 | 51 | 349 | 7.0 | 12.0 | 0.00 | 0.00 | 0.00 | 100 | 959.1 |
| 20260508151240 | 51 | 354 | 8.0 | 12.0 | 0.00 | 0.00 | 0.00 | 100 | 959.0 |
| 20260508151140 | 51 | 357 | 8.0 | 10.0 | 0.00 | 0.00 | 0.00 | 100 | 959.0 |
| 20260508151037 | 51 | 356 | 7.0 | 10.0 | 0.00 | 0.00 | 0.00 | 100 | 959.0 |
| 20260508150835 | 51 | 358 | 6.0 | 10.0 | 0.00 | 0.00 | 0.00 | 100 | 959.0 |
| 20260508150632 | 51 | 354 | 5.0 | 10.0 | 0.00 | 0.00 | 0.00 | 100 | 959.1 |
| 20260508150531 | 51 | 351 | 5.0 | 7.0 | 0.00 | 0.00 | 0.00 | 100 | 959.1 |
| 20260508150429 | 51 | 353 | 4.0 | 7.0 | 0.00 | 0.00 | 0.00 | 100 | 959.0 |
| 20260508150226 | 51 | 354 | 4.0 | 7.0 | 0.00 | 0.00 | 0.00 | 100 | 959.1 |
| 20260508150022 | 51 | 357 | 4.0 | 6.0 | 0.00 | 0.00 | 0.00 | 100 | 959.1 |
| 20260508145921 | 51 | 359 | 4.0 | 6.0 | 0.00 | 0.00 | 0.00 | 100 | 959.0 |
| 20260508145819 | 51 | 359 | 4.0 | 5.0 | 0.00 | 0.00 | 0.00 | 100 | 959.0 |
| 20260508145616 | 51 | 355 | 4.0 | 6.0 | 0.00 | 0.00 | 0.00 | 100 | 959.0 |
| 20260508145412 | 51 | 342 | 4.0 | 6.0 | 0.00 | 0.00 | 0.00 | 100 | 958.9 |
| 20260508145311 | 51 | 337 | 4.0 | 6.0 | 0.00 | 0.00 | 0.00 | 100 | 959.0 |
| 20260508145209 | 51 | 336 | 4.0 | 7.0 | 0.00 | 0.00 | 0.00 | 100 | 959.0 |
| 20260508145006 | 51 | 335 | 5.0 | 7.0 | 0.00 | 0.00 | 0.00 | 100 | 959.0 |
| 20260508144803 | 51 | 330 | 5.0 | 7.0 | 0.00 | 0.00 | 0.00 | 100 | 959.0 |
| 20260508144702 | 51 | 330 | 5.0 | 7.0 | 0.00 | 0.00 | 0.00 | 100 | 959.0 |
| 20260508144600 | 51 | 327 | 5.0 | 7.0 | 0.00 | 0.00 | 0.00 | 100 | 959.0 |
| 20260508144356 | 51 | 339 | 4.0 | 7.0 | 0.00 | 0.00 | 0.00 | 100 | 959.0 |
| 20260508144153 | 50 | 344 | 5.0 | 8.0 | 0.00 | 0.00 | 0.00 | 100 | 959.0 |
| 20260508144052 | 50 | 343 | 5.0 | 8.0 | 0.00 | 0.00 | 0.00 | 100 | 958.9 |
| 20260508143949 | 50 | 342 | 5.0 | 8.0 | 0.00 | 0.00 | 0.00 | 100 | 959.0 |
| 20260508143747 | 50 | 338 | 6.0 | 8.0 | 0.00 | 0.00 | 0.00 | 100 | 958.9 |
| 20260508143544 | 50 | 344 | 6.0 | 8.0 | 0.00 | 0.00 | 0.00 | 100 | 959.0 |
| 20260508143443 | 50 | 346 | 5.0 | 8.0 | 0.00 | 0.00 | 0.00 | 100 | 958.9 |
| 20260508143341 | 50 | 348 | 5.0 | 8.0 | 0.00 | 0.00 | 0.00 | 100 | 959.0 |
| 20260508143137 | 50 | 344 | 5.0 | 8.0 | 0.00 | 0.00 | 0.00 | 100 | 958.9 |
| 20260508142934 | 50 | 339 | 6.0 | 10.0 | 0.00 | 0.00 | 0.00 | 100 | 958.9 |
| 20260508142732 | 50 | 342 | 6.0 | 10.0 | 0.00 | 0.00 | 0.00 | 100 | 958.9 |
| 20260508142528 | 50 | 345 | 6.0 | 9.0 | 0.00 | 0.00 | 0.00 | 100 | 958.8 |
| 20260508142325 | 50 | 347 | 6.0 | 9.0 | 0.00 | 0.00 | 0.00 | 100 | 958.8 |
| 20260508142224 | 50 | 348 | 6.0 | 10.0 | 0.00 | 0.00 | 0.00 | 100 | 958.9 |
| 20260508142122 | 50 | 350 | 6.0 | 10.0 | 0.00 | 0.00 | 0.00 | 100 | 958.9 |
| 20260508141920 | 50 | 344 | 7.0 | 10.0 | 0.00 | 0.00 | 0.00 | 100 | 958.9 |
| 20260508141716 | 50 | 337 | 7.0 | 10.0 | 0.00 | 0.00 | 0.00 | 100 | 958.8 |
| 20260508141615 | 50 | 337 | 8.0 | 11.0 | 0.00 | 0.00 | 0.00 | 100 | 958.9 |
| 20260508141513 | 50 | 339 | 8.0 | 13.0 | 0.00 | 0.00 | 0.00 | 100 | 958.9 |
| 20260508141310 | 50 | 340 | 9.0 | 13.0 | 0.00 | 0.00 | 0.00 | 100 | 959.0 |
| 20260508141106 | 50 | 346 | 10.0 | 13.0 | 0.00 | 0.00 | 0.00 | 100 | 958.9 |
| 20260508141005 | 50 | 347 | 10.0 | 13.0 | 0.00 | 0.00 | 0.00 | 100 | 958.9 |
| 20260508140903 | 50 | 348 | 9.0 | 13.0 | 0.00 | 0.00 | 0.00 | 100 | 958.9 |
| 20260508140700 | 50 | 345 | 9.0 | 14.0 | 0.00 | 0.00 | 0.00 | 100 | 958.9 |
| 20260508140457 | 50 | 344 | 9.0 | 14.0 | 0.00 | 0.00 | 0.00 | 100 | 958.9 |
| 20260508140356 | 50 | 343 | 9.0 | 13.0 | 0.00 | 0.00 | 0.00 | 100 | 958.7 |
| 20260508140253 | 50 | 341 | 8.0 | 13.0 | 0.00 | 0.00 | 0.00 | 100 | 958.8 |
| 20260508140050 | 50 | 340 | 8.0 | 12.0 | 0.00 | 0.00 | 0.00 | 100 | 958.9 |
| 20260508135847 | 50 | 342 | 8.0 | 13.0 | 0.00 | 0.00 | 0.00 | 100 | 958.8 |
| 20260508135747 | 50 | 343 | 9.0 | 16.0 | 0.00 | 0.00 | 0.00 | 100 | 958.8 |
| 20260508135645 | 50 | 347 | 9.0 | 16.0 | 0.00 | 0.00 | 0.00 | 100 | 958.9 |
| 20260508135442 | 50 | 351 | 11.0 | 16.0 | 0.00 | 0.00 | 0.00 | 100 | 958.9 |
| 20260508135238 | 50 | 351 | 9.0 | 16.0 | 0.00 | 0.00 | 0.00 | 100 | 958.7 |
| 20260508135138 | 50 | 350 | 8.0 | 16.0 | 0.00 | 0.00 | 0.00 | 100 | 958.8 |
| 20260508135023 | 50 | 343 | 9.0 | 15.0 | 0.00 | 0.00 | 0.00 | 100 | 958.9 |
| 20260508134820 | 50 | 343 | 10.0 | 17.0 | 0.00 | 0.00 | 0.00 | 100 | 958.8 |
| 20260508134617 | 50 | 348 | 10.0 | 16.0 | 0.00 | 0.00 | 0.00 | 100 | 958.8 |
| 20260508134516 | 50 | 358 | 10.0 | 15.0 | 0.00 | 0.00 | 0.00 | 100 | 958.7 |
| 20260508134414 | 50 | 0 | 10.0 | 15.0 | 0.00 | 0.00 | 0.00 | 100 | 958.7 |
| 20260508134210 | 51 | 357 | 10.0 | 15.0 | 0.00 | 0.00 | 0.00 | 100 | 958.7 |
| 20260508134007 | 51 | 344 | 8.0 | 12.0 | 0.00 | 0.00 | 0.00 | 100 | 958.6 |
| 20260508133907 | 51 | 341 | 8.0 | 14.0 | 0.00 | 0.00 | 0.00 | 100 | 958.5 |
| 20260508133805 | 51 | 341 | 8.0 | 16.0 | 0.00 | 0.00 | 0.00 | 100 | 958.6 |
| 20260508133602 | 50 | 343 | 10.0 | 16.0 | 0.00 | 0.00 | 0.00 | 100 | 958.6 |
| 20260508133359 | 51 | 348 | 10.0 | 16.0 | 0.00 | 0.00 | 0.00 | 100 | 958.5 |
| 20260508133258 | 51 | 348 | 10.0 | 17.0 | 0.00 | 0.00 | 0.00 | 100 | 958.6 |
| 20260508133156 | 50 | 348 | 10.0 | 17.0 | 0.00 | 0.00 | 0.00 | 100 | 958.6 |
| 20260508132953 | 51 | 349 | 11.0 | 17.0 | 0.00 | 0.00 | 0.00 | 100 | 958.7 |
| 20260508132750 | 51 | 346 | 11.0 | 16.0 | 0.00 | 0.00 | 0.00 | 100 | 958.6 |
| 20260508132649 | 51 | 344 | 9.0 | 16.0 | 0.00 | 0.00 | 0.00 | 100 | 958.6 |
| 20260508132547 | 51 | 343 | 9.0 | 16.0 | 0.00 | 0.00 | 0.00 | 100 | 958.7 |
| 20260508132344 | 51 | 349 | 9.0 | 14.0 | 0.00 | 0.00 | 0.00 | 100 | 958.7 |
| 20260508132141 | 51 | 346 | 10.0 | 14.0 | 0.00 | 0.00 | 0.00 | 100 | 958.8 |
| 20260508132040 | 51 | 343 | 9.0 | 14.0 | 0.00 | 0.00 | 0.00 | 100 | 958.6 |
| 20260508131938 | 51 | 342 | 9.0 | 14.0 | 0.00 | 0.00 | 0.00 | 100 | 958.6 |
| 20260508131734 | 51 | 341 | 9.0 | 14.0 | 0.00 | 0.00 | 0.00 | 100 | 958.7 |
| 20260508131531 | 51 | 338 | 10.0 | 15.0 | 0.00 | 0.00 | 0.00 | 100 | 958.5 |
| 20260508131430 | 51 | 339 | 9.0 | 15.0 | 0.00 | 0.00 | 0.00 | 100 | 958.6 |
| 20260508131327 | 51 | 339 | 10.0 | 15.0 | 0.00 | 0.00 | 0.00 | 100 | 958.6 |
| 20260508131124 | 51 | 340 | 10.0 | 16.0 | 0.00 | 0.00 | 0.00 | 100 | 958.5 |
| 20260508130921 | 52 | 341 | 8.0 | 16.0 | 0.00 | 0.00 | 0.00 | 100 | 958.6 |
| 20260508130821 | 52 | 342 | 8.0 | 15.0 | 0.00 | 0.00 | 0.00 | 100 | 958.5 |
| 20260508130718 | 52 | 348 | 8.0 | 15.0 | 0.00 | 0.00 | 0.00 | 100 | 958.5 |
| 20260508130515 | 52 | 359 | 10.0 | 15.0 | 0.00 | 0.00 | 0.00 | 100 | 958.6 |
| 20260508130312 | 51 | 1 | 11.0 | 16.0 | 0.00 | 0.00 | 0.00 | 100 | 958.6 |
| 20260508130211 | 51 | 0 | 10.0 | 16.0 | 0.00 | 0.00 | 0.00 | 100 | 958.6 |
| 20260508130109 | 51 | 356 | 10.0 | 16.0 | 0.00 | 0.00 | 0.00 | 100 | 958.6 |
| 20260508125906 | 51 | 357 | 12.0 | 16.0 | 0.00 | 0.00 | 0.00 | 100 | 958.6 |
| 20260508125702 | 51 | 1 | 13.0 | 16.0 | 0.00 | 0.00 | 0.00 | 100 | 958.6 |
| 20260508125602 | 51 | 4 | 13.0 | 18.0 | 0.00 | 0.00 | 0.00 | 100 | 958.6 |
| 20260508125501 | 51 | 4 | 12.0 | 18.0 | 0.00 | 0.00 | 0.00 | 100 | 958.6 |
| 20260508125257 | 51 | 5 | 12.0 | 18.0 | 0.00 | 0.00 | 0.00 | 100 | 958.5 |
| 20260508125055 | 51 | 5 | 12.0 | 16.0 | 0.00 | 0.00 | 0.00 | 100 | 958.5 |
| 20260508124954 | 51 | 3 | 13.0 | 20.0 | 0.00 | 0.00 | 0.00 | 100 | 958.6 |
| 20260508124852 | 51 | 3 | 13.0 | 20.0 | 0.00 | 0.00 | 0.00 | 100 | 958.5 |
| 20260508124649 | 51 | 0 | 13.0 | 20.0 | 0.00 | 0.00 | 0.00 | 100 | 958.6 |
| 20260508124446 | 51 | 358 | 11.0 | 17.0 | 0.00 | 0.00 | 0.00 | 100 | 958.5 |
| 20260508124345 | 51 | 359 | 11.0 | 17.0 | 0.00 | 0.00 | 0.00 | 100 | 958.6 |
| 20260508124242 | 51 | 356 | 11.0 | 17.0 | 0.00 | 0.00 | 0.00 | 100 | 958.6 |
| 20260508124039 | 51 | 0 | 12.0 | 17.0 | 0.00 | 0.00 | 0.00 | 100 | 958.7 |
| 20260508123836 | 51 | 4 | 11.0 | 17.0 | 0.00 | 0.00 | 0.00 | 100 | 958.5 |
| 20260508123735 | 52 | 3 | 10.0 | 16.0 | 0.00 | 0.00 | 0.00 | 100 | 958.5 |
| 20260508123633 | 52 | 359 | 9.0 | 14.0 | 0.00 | 0.00 | 0.00 | 100 | 958.5 |
| 20260508123430 | 52 | 346 | 8.0 | 14.0 | 0.00 | 0.00 | 0.00 | 100 | 958.5 |
| 20260508123228 | 52 | 350 | 8.0 | 13.0 | 0.00 | 0.00 | 0.00 | 100 | 958.6 |
| 20260508123127 | 53 | 354 | 8.0 | 13.0 | 0.00 | 0.00 | 0.00 | 100 | 958.5 |
| 20260508123024 | 53 | 359 | 8.0 | 14.0 | 0.00 | 0.00 | 0.00 | 100 | 958.5 |
| 20260508122820 | 52 | 4 | 11.0 | 15.0 | 0.00 | 0.00 | 0.00 | 100 | 958.6 |
| 20260508122618 | 52 | 4 | 12.0 | 15.0 | 0.00 | 0.00 | 0.00 | 100 | 958.5 |
| 20260508122517 | 52 | 4 | 12.0 | 15.0 | 0.00 | 0.00 | 0.00 | 100 | 958.4 |
| 20260508122415 | 52 | 2 | 11.0 | 15.0 | 0.00 | 0.00 | 0.00 | 100 | 958.6 |
| 20260508122211 | 52 | 353 | 10.0 | 14.0 | 0.00 | 0.00 | 0.00 | 100 | 958.5 |
| 20260508122008 | 52 | 348 | 9.0 | 14.0 | 0.00 | 0.00 | 0.00 | 100 | 958.5 |
| 20260508121907 | 52 | 347 | 9.0 | 16.0 | 0.00 | 0.00 | 0.00 | 100 | 958.5 |
| 20260508121805 | 52 | 346 | 10.0 | 16.0 | 0.00 | 0.00 | 0.00 | 100 | 958.5 |
| 20260508121601 | 52 | 350 | 11.0 | 16.0 | 0.00 | 0.00 | 0.00 | 100 | 958.4 |
| 20260508121359 | 51 | 4 | 11.0 | 15.0 | 0.00 | 0.00 | 0.00 | 100 | 958.5 |
| 20260508121258 | 51 | 4 | 11.0 | 15.0 | 0.00 | 0.00 | 0.00 | 100 | 958.5 |
| 20260508121155 | 51 | 3 | 10.0 | 14.0 | 0.00 | 0.00 | 0.00 | 100 | 958.5 |
| 20260508120952 | 51 | 359 | 10.0 | 16.0 | 0.00 | 0.00 | 0.00 | 100 | 958.5 |
| 20260508120749 | 51 | 358 | 10.0 | 16.0 | 0.00 | 0.00 | 0.00 | 100 | 958.5 |
| 20260508120648 | 51 | 359 | 10.0 | 16.0 | 0.00 | 0.00 | 0.00 | 100 | 958.5 |
| 20260508120545 | 51 | 2 | 10.0 | 14.0 | 0.00 | 0.00 | 0.00 | 100 | 958.6 |
| 20260508120342 | 51 | 1 | 11.0 | 15.0 | 0.00 | 0.00 | 0.00 | 100 | 958.6 |
| 20260508120139 | 51 | 359 | 11.0 | 16.0 | 0.00 | 0.00 | 0.00 | 100 | 958.6 |
| 20260508120038 | 51 | 359 | 11.0 | 16.0 | 0.00 | 0.00 | 0.00 | 100 | 958.6 |
| 20260508115935 | 51 | 358 | 11.0 | 16.0 | 0.00 | 0.00 | 0.00 | 100 | 958.6 |
| 20260508115733 | 51 | 0 | 11.0 | 15.0 | 0.00 | 0.00 | 0.00 | 100 | 958.5 |
| 20260508115530 | 51 | 359 | 10.0 | 16.0 | 0.00 | 0.00 | 0.00 | 100 | 958.5 |
| 20260508115429 | 51 | 1 | 10.0 | 16.0 | 0.00 | 0.00 | 0.00 | 100 | 958.4 |
| 20260508115326 | 52 | 2 | 10.0 | 16.0 | 0.00 | 0.00 | 0.00 | 100 | 958.5 |
| 20260508115123 | 51 | 359 | 11.0 | 16.0 | 0.00 | 0.00 | 0.00 | 100 | 958.4 |
| 20260508114919 | 51 | 358 | 12.0 | 18.0 | 0.00 | 0.00 | 0.00 | 100 | 958.5 |
| 20260508114819 | 51 | 359 | 13.0 | 18.0 | 0.00 | 0.00 | 0.00 | 100 | 958.5 |
| 20260508114716 | 51 | 2 | 13.0 | 18.0 | 0.00 | 0.00 | 0.00 | 100 | 958.5 |
| 20260508114514 | 51 | 359 | 10.0 | 18.0 | 0.00 | 0.00 | 0.00 | 100 | 958.6 |
| 20260508114310 | 52 | 348 | 8.0 | 13.0 | 0.00 | 0.00 | 0.00 | 100 | 958.5 |
| 20260508114210 | 51 | 346 | 8.0 | 13.0 | 0.00 | 0.00 | 0.00 | 100 | 958.5 |
| 20260508114107 | 51 | 351 | 8.0 | 13.0 | 0.00 | 0.00 | 0.00 | 100 | 958.5 |
| 20260508113904 | 51 | 3 | 9.0 | 16.0 | 0.00 | 0.00 | 0.00 | 100 | 958.6 |
| 20260508113700 | 51 | 1 | 11.0 | 16.0 | 0.00 | 0.00 | 0.00 | 100 | 958.6 |
| 20260508113600 | 51 | 356 | 11.0 | 16.0 | 0.00 | 0.00 | 0.00 | 100 | 958.5 |
| 20260508113458 | 51 | 354 | 11.0 | 17.0 | 0.00 | 0.00 | 0.00 | 100 | 958.5 |
| 20260508113255 | 51 | 354 | 11.0 | 17.0 | 0.00 | 0.00 | 0.00 | 100 | 958.7 |
| 20260508113052 | 50 | 351 | 9.0 | 17.0 | 0.00 | 0.00 | 0.00 | 100 | 958.5 |
| 20260508112951 | 51 | 352 | 8.0 | 16.0 | 0.00 | 0.00 | 0.00 | 100 | 958.6 |
| 20260508112850 | 51 | 354 | 10.0 | 18.0 | 0.00 | 0.00 | 0.00 | 100 | 958.6 |
| 20260508112647 | 50 | 356 | 11.0 | 18.0 | 0.00 | 0.00 | 0.00 | 100 | 958.6 |
| 20260508112444 | 50 | 2 | 12.0 | 18.0 | 0.00 | 0.00 | 0.00 | 100 | 958.6 |
| 20260508112343 | 50 | 2 | 11.0 | 17.0 | 0.00 | 0.00 | 0.00 | 100 | 958.6 |
| 20260508112241 | 50 | 1 | 11.0 | 17.0 | 0.00 | 0.00 | 0.00 | 100 | 958.6 |
| 20260508112037 | 51 | 355 | 10.0 | 16.0 | 0.00 | 0.00 | 0.00 | 100 | 958.5 |
| 20260508111834 | 51 | 350 | 10.0 | 16.0 | 0.00 | 0.00 | 0.00 | 100 | 958.4 |
| 20260508111733 | 51 | 351 | 10.0 | 16.0 | 0.00 | 0.00 | 0.00 | 100 | 958.4 |
| 20260508111630 | 51 | 352 | 10.0 | 16.0 | 0.00 | 0.00 | 0.00 | 100 | 958.4 |
| 20260508111428 | 50 | 2 | 12.0 | 18.0 | 0.00 | 0.00 | 0.00 | 100 | 958.6 |
| 20260508111224 | 50 | 0 | 11.0 | 18.0 | 0.00 | 0.00 | 0.00 | 100 | 958.6 |
| 20260508111110 | 50 | 356 | 10.0 | 18.0 | 0.00 | 0.00 | 0.00 | 100 | 958.5 |
| 20260508111007 | 51 | 357 | 9.0 | 17.0 | 0.00 | 0.00 | 0.00 | 100 | 958.5 |
| 20260508110804 | 50 | 3 | 10.0 | 15.0 | 0.00 | 0.00 | 0.00 | 100 | 958.5 |
| 20260508110601 | 50 | 1 | 10.0 | 15.0 | 0.00 | 0.00 | 0.00 | 100 | 958.6 |
| 20260508110500 | 50 | 359 | 10.0 | 15.0 | 0.00 | 0.00 | 0.00 | 100 | 958.6 |
| 20260508110357 | 50 | 356 | 10.0 | 15.0 | 0.00 | 0.00 | 0.00 | 100 | 958.6 |
| 20260508110154 | 50 | 359 | 10.0 | 16.0 | 0.00 | 0.00 | 0.00 | 100 | 958.5 |
| 20260508105952 | 50 | 2 | 9.0 | 16.0 | 0.00 | 0.00 | 0.00 | 100 | 958.6 |
| 20260508105851 | 50 | 8 | 7.0 | 16.0 | 0.00 | 0.00 | 0.00 | 100 | 958.6 |
| 20260508105748 | 50 | 10 | 7.0 | 12.0 | 0.00 | 0.00 | 0.00 | 100 | 958.5 |
| 20260508105545 | 50 | 9 | 8.0 | 14.0 | 0.00 | 0.00 | 0.00 | 100 | 958.5 |
| 20260508105343 | 50 | 7 | 9.0 | 16.0 | 0.00 | 0.00 | 0.00 | 100 | 958.6 |
| 20260508105242 | 50 | 5 | 10.0 | 16.0 | 0.00 | 0.00 | 0.00 | 100 | 958.5 |
| 20260508105139 | 50 | 5 | 10.0 | 16.0 | 0.00 | 0.00 | 0.00 | 100 | 958.6 |
| 20260508104936 | 50 | 3 | 10.0 | 14.0 | 0.00 | 0.00 | 0.00 | 100 | 958.5 |
| 20260508104733 | 50 | 0 | 10.0 | 16.0 | 0.00 | 0.00 | 0.00 | 100 | 958.4 |
| 20260508104632 | 50 | 356 | 10.0 | 16.0 | 0.00 | 0.00 | 0.00 | 100 | 958.4 |
| 20260508104530 | 50 | 353 | 9.0 | 16.0 | 0.00 | 0.00 | 0.00 | 100 | 958.5 |
| 20260508104327 | 50 | 351 | 9.0 | 14.0 | 0.00 | 0.00 | 0.00 | 100 | 958.4 |
| 20260508104123 | 50 | 355 | 10.0 | 15.0 | 0.00 | 0.00 | 0.00 | 100 | 958.3 |
| 20260508104022 | 50 | 357 | 11.0 | 15.0 | 0.00 | 0.00 | 0.00 | 100 | 958.4 |
| 20260508103920 | 50 | 0 | 11.0 | 15.0 | 0.00 | 0.00 | 0.00 | 100 | 958.3 |
| 20260508103717 | 50 | 4 | 11.0 | 15.0 | 0.00 | 0.00 | 0.00 | 100 | 958.4 |
| 20260508103514 | 50 | 358 | 10.0 | 16.0 | 0.00 | 0.00 | 0.00 | 100 | 958.5 |
| 20260508103413 | 51 | 357 | 10.0 | 16.0 | 0.00 | 0.00 | 0.00 | 100 | 958.5 |
| 20260508103311 | 50 | 359 | 11.0 | 18.0 | 0.00 | 0.00 | 0.00 | 100 | 958.4 |
| 20260508103108 | 50 | 4 | 12.0 | 18.0 | 0.00 | 0.00 | 0.00 | 100 | 958.4 |
| 20260508102906 | 50 | 4 | 10.0 | 14.0 | 0.00 | 0.00 | 0.00 | 100 | 958.4 |
| 20260508102804 | 50 | 4 | 10.0 | 15.0 | 0.00 | 0.00 | 0.00 | 100 | 958.3 |
| 20260508102702 | 50 | 4 | 10.0 | 15.0 | 0.00 | 0.00 | 0.00 | 100 | 958.2 |
| 20260508102459 | 50 | 359 | 10.0 | 15.0 | 0.00 | 0.00 | 0.00 | 100 | 958.4 |
| 20260508102257 | 51 | 2 | 9.0 | 15.0 | 0.00 | 0.00 | 0.00 | 100 | 958.3 |
| 20260508102156 | 50 | 3 | 10.0 | 17.0 | 0.00 | 0.00 | 0.00 | 100 | 958.3 |
| 20260508102053 | 50 | 4 | 11.0 | 17.0 | 0.00 | 0.00 | 0.00 | 100 | 958.3 |
| 20260508101850 | 50 | 4 | 12.0 | 17.0 | 0.00 | 0.00 | 0.00 | 100 | 958.4 |
| 20260508101647 | 50 | 4 | 12.0 | 16.0 | 0.00 | 0.00 | 0.00 | 100 | 958.2 |
| 20260508101547 | 50 | 4 | 11.0 | 16.0 | 0.00 | 0.00 | 0.00 | 100 | 958.3 |
| 20260508101444 | 50 | 2 | 11.0 | 16.0 | 0.00 | 0.00 | 0.00 | 100 | 958.3 |
| 20260508101241 | 51 | 1 | 10.0 | 19.0 | 0.00 | 0.00 | 0.00 | 100 | 958.3 |
| 20260508101038 | 50 | 1 | 11.0 | 19.0 | 0.00 | 0.00 | 0.00 | 100 | 958.3 |
| 20260508100937 | 50 | 3 | 11.0 | 19.0 | 0.00 | 0.00 | 0.00 | 100 | 958.4 |
| 20260508100835 | 51 | 7 | 10.0 | 19.0 | 0.00 | 0.00 | 0.00 | 100 | 958.4 |
| 20260508100631 | 51 | 7 | 9.0 | 12.0 | 0.00 | 0.00 | 0.00 | 100 | 958.5 |
| 20260508100428 | 51 | 358 | 8.0 | 12.0 | 0.00 | 0.00 | 0.00 | 100 | 958.4 |
| 20260508100328 | 51 | 355 | 8.0 | 14.0 | 0.00 | 0.00 | 0.00 | 100 | 958.4 |
| 20260508100226 | 51 | 355 | 9.0 | 16.0 | 0.00 | 0.00 | 0.00 | 100 | 958.5 |
| 20260508100022 | 51 | 0 | 10.0 | 16.0 | 0.00 | 0.00 | 0.00 | 100 | 958.5 |
| 20260508095819 | 51 | 4 | 9.0 | 16.0 | 0.00 | 0.00 | 0.00 | 100 | 958.4 |
| 20260508095718 | 51 | 4 | 9.0 | 15.0 | 0.00 | 0.00 | 0.00 | 100 | 958.4 |
| 20260508095616 | 51 | 1 | 10.0 | 15.0 | 0.00 | 0.00 | 0.00 | 100 | 958.4 |
| 20260508095413 | 51 | 358 | 10.0 | 15.0 | 0.00 | 0.00 | 0.00 | 100 | 958.4 |
| 20260508095209 | 51 | 1 | 10.0 | 15.0 | 0.00 | 0.00 | 0.00 | 100 | 958.4 |
| 20260508095109 | 50 | 4 | 10.0 | 15.0 | 0.00 | 0.00 | 0.00 | 100 | 958.4 |
| 20260508095006 | 51 | 4 | 10.0 | 15.0 | 0.00 | 0.00 | 0.00 | 100 | 958.5 |
| 20260508094803 | 51 | 3 | 10.0 | 15.0 | 0.00 | 0.00 | 0.00 | 100 | 958.3 |
| 20260508094600 | 51 | 4 | 10.0 | 15.0 | 0.00 | 0.00 | 0.00 | 100 | 958.4 |
| 20260508094459 | 51 | 4 | 9.0 | 15.0 | 0.00 | 0.00 | 0.00 | 100 | 958.4 |
| 20260508094357 | 51 | 4 | 8.0 | 14.0 | 0.00 | 0.00 | 0.00 | 100 | 958.5 |
| 20260508094154 | 51 | 3 | 8.0 | 12.0 | 0.00 | 0.00 | 0.00 | 100 | 958.4 |
| 20260508093951 | 51 | 4 | 7.0 | 12.0 | 0.00 | 0.00 | 0.00 | 100 | 958.4 |
| 20260508093850 | 51 | 3 | 6.0 | 12.0 | 0.00 | 0.00 | 0.00 | 100 | 958.4 |
| 20260508093747 | 52 | 2 | 5.0 | 10.0 | 0.00 | 0.00 | 0.00 | 100 | 958.5 |
| 20260508093544 | 52 | 4 | 5.0 | 10.0 | 0.00 | 0.00 | 0.00 | 100 | 958.4 |
| 20260508093341 | 52 | 10 | 5.0 | 10.0 | 0.00 | 0.00 | 0.00 | 100 | 958.3 |
| 20260508093240 | 52 | 10 | 5.0 | 8.0 | 0.00 | 0.00 | 0.00 | 100 | 958.5 |
| 20260508093138 | 52 | 13 | 5.0 | 8.0 | 0.00 | 0.00 | 0.00 | 100 | 958.5 |
| 20260508092934 | 52 | 3 | 6.0 | 10.0 | 0.00 | 0.00 | 0.00 | 100 | 958.4 |
| 20260508092731 | 51 | 352 | 4.0 | 10.0 | 0.00 | 0.00 | 0.00 | 100 | 958.5 |
| 20260508092631 | 51 | 349 | 5.0 | 10.0 | 0.00 | 0.00 | 0.00 | 100 | 958.3 |
| 20260508092529 | 51 | 348 | 4.0 | 8.0 | 0.00 | 0.00 | 0.00 | 100 | 958.4 |
| 20260508092325 | 51 | 344 | 6.0 | 8.0 | 0.00 | 0.00 | 0.00 | 100 | 958.4 |
| 20260508092122 | 51 | 337 | 6.0 | 9.0 | 0.00 | 0.00 | 0.00 | 100 | 958.4 |
| 20260508092022 | 51 | 341 | 5.0 | 9.0 | 0.00 | 0.00 | 0.00 | 100 | 958.4 |
| 20260508091920 | 51 | 357 | 5.0 | 9.0 | 0.00 | 0.00 | 0.00 | 100 | 958.4 |
| 20260508091717 | 52 | 10 | 5.0 | 10.0 | 0.00 | 0.00 | 0.00 | 100 | 958.4 |
| 20260508091514 | 52 | 2 | 5.0 | 10.0 | 0.00 | 0.00 | 0.00 | 100 | 958.4 |
| 20260508091413 | 52 | 7 | 4.0 | 10.0 | 0.00 | 0.00 | 0.00 | 100 | 958.4 |
| 20260508091311 | 52 | 14 | 4.0 | 7.0 | 0.00 | 0.00 | 0.00 | 100 | 958.4 |
| 20260508091108 | 51 | 15 | 6.0 | 7.0 | 0.00 | 0.00 | 0.00 | 100 | 958.4 |
| 20260508090905 | 51 | 9 | 6.0 | 8.0 | 0.00 | 0.00 | 0.00 | 100 | 958.4 |
| 20260508090804 | 51 | 12 | 6.0 | 8.0 | 0.00 | 0.00 | 0.00 | 100 | 958.4 |
| 20260508090702 | 51 | 12 | 6.0 | 9.0 | 0.00 | 0.00 | 0.00 | 100 | 958.4 |
| 20260508090459 | 51 | 11 | 6.0 | 10.0 | 0.00 | 0.00 | 0.00 | 100 | 958.5 |
| 20260508090256 | 51 | 4 | 7.0 | 10.0 | 0.00 | 0.00 | 0.00 | 100 | 958.5 |
| 20260508090155 | 51 | 3 | 6.0 | 10.0 | 0.00 | 0.00 | 0.00 | 100 | 958.5 |
| 20260508090052 | 51 | 2 | 6.0 | 11.0 | 0.00 | 0.00 | 0.00 | 100 | 958.5 |
| 20260508085849 | 50 | 2 | 6.0 | 11.0 | 0.00 | 0.00 | 0.00 | 100 | 958.5 |
| 20260508085647 | 51 | 1 | 7.0 | 11.0 | 0.00 | 0.00 | 0.00 | 100 | 958.4 |
| 20260508085546 | 51 | 357 | 6.0 | 10.0 | 0.00 | 0.00 | 0.00 | 100 | 958.4 |
| 20260508085443 | 51 | 349 | 6.0 | 10.0 | 0.00 | 0.00 | 0.00 | 100 | 958.4 |
| 20260508085241 | 51 | 341 | 5.0 | 8.0 | 0.00 | 0.00 | 0.00 | 100 | 958.4 |
| 20260508085038 | 51 | 350 | 7.0 | 13.0 | 0.00 | 0.00 | 0.00 | 100 | 958.3 |
| 20260508084937 | 50 | 355 | 8.0 | 13.0 | 0.00 | 0.00 | 0.00 | 100 | 958.3 |
| 20260508084834 | 50 | 357 | 8.0 | 13.0 | 0.00 | 0.00 | 0.00 | 100 | 958.3 |
| 20260508084631 | 50 | 1 | 7.0 | 11.0 | 0.00 | 0.00 | 0.00 | 100 | 958.3 |
| 20260508084428 | 50 | 359 | 8.0 | 11.0 | 0.00 | 0.00 | 0.00 | 100 | 958.3 |
| 20260508084327 | 50 | 358 | 8.0 | 10.0 | 0.00 | 0.00 | 0.00 | 100 | 958.4 |
| 20260508084129 | 50 | 359 | 7.0 | 12.0 | 0.00 | 0.00 | 0.00 | 100 | 958.3 |
| 20260508083926 | 50 | 2 | 6.0 | 12.0 | 0.00 | 0.00 | 0.00 | 100 | 958.3 |
| 20260508083825 | 50 | 6 | 5.0 | 9.0 | 0.00 | 0.00 | 0.00 | 100 | 958.4 |
| 20260508083722 | 50 | 13 | 5.0 | 9.0 | 0.00 | 0.00 | 0.00 | 100 | 958.3 |
| 20260508083519 | 50 | 21 | 4.0 | 7.0 | 0.00 | 0.00 | 0.00 | 100 | 958.4 |
| 20260508083316 | 50 | 23 | 3.0 | 7.0 | 0.00 | 0.00 | 0.00 | 100 | 958.3 |
| 20260508083216 | 50 | 47 | 3.0 | 6.0 | 0.00 | 0.00 | 0.00 | 100 | 958.3 |
| 20260508083113 | 50 | 55 | 3.0 | 6.0 | 0.00 | 0.00 | 0.00 | 100 | 958.3 |
| 20260508082910 | 50 | 75 | 3.0 | 6.0 | 0.00 | 0.00 | 0.00 | 100 | 958.3 |
| 20260508082707 | 50 | 67 | 2.0 | 4.0 | 0.00 | 0.00 | 0.00 | 100 | 958.4 |
| 20260508082553 | 50 | 55 | 2.0 | 4.0 | 0.00 | 0.00 | 0.00 | 100 | 958.3 |
| 20260508082450 | 50 | 52 | 2.0 | 4.0 | 0.00 | 0.00 | 0.00 | 100 | 958.3 |
| 20260508082247 | 49 | 52 | 2.0 | 4.0 | 0.00 | 0.00 | 0.00 | 100 | 958.3 |
| 20260508082044 | 49 | 59 | 2.0 | 3.0 | 0.00 | 0.00 | 0.00 | 100 | 958.4 |
| 20260508081943 | 49 | 61 | 2.0 | 3.0 | 0.00 | 0.00 | 0.00 | 100 | 958.3 |
| 20260508081840 | 49 | 52 | 2.0 | 3.0 | 0.00 | 0.00 | 0.00 | 100 | 958.3 |
| 20260508081638 | 50 | 42 | 2.0 | 4.0 | 0.00 | 0.00 | 0.00 | 100 | 958.3 |
| 20260508081435 | 49 | 53 | 2.0 | 4.0 | 0.00 | 0.00 | 0.00 | 100 | 958.3 |
| 20260508081335 | 49 | 57 | 2.0 | 4.0 | 0.00 | 0.00 | 0.00 | 100 | 958.3 |
| 20260508081232 | 49 | 63 | 2.0 | 3.0 | 0.00 | 0.00 | 0.00 | 100 | 958.3 |
| 20260508081028 | 49 | 64 | 2.0 | 4.0 | 0.00 | 0.00 | 0.00 | 100 | 958.3 |
| 20260508080825 | 49 | 55 | 3.0 | 5.0 | 0.00 | 0.00 | 0.00 | 100 | 958.3 |
| 20260508080724 | 49 | 55 | 3.0 | 5.0 | 0.00 | 0.00 | 0.00 | 100 | 958.3 |
| 20260508080622 | 49 | 56 | 4.0 | 5.0 | 0.00 | 0.00 | 0.00 | 100 | 958.4 |
| 20260508080418 | 49 | 60 | 3.0 | 5.0 | 0.00 | 0.00 | 0.00 | 100 | 958.2 |
| 20260508080215 | 49 | 55 | 2.0 | 4.0 | 0.00 | 0.00 | 0.00 | 100 | 958.3 |
| 20260508080114 | 49 | 52 | 2.0 | 5.0 | 0.00 | 0.00 | 0.00 | 100 | 958.3 |
| 20260508080012 | 49 | 51 | 3.0 | 5.0 | 0.00 | 0.00 | 0.00 | 100 | 958.2 |
| 20260508075809 | 49 | 36 | 3.0 | 5.0 | 0.00 | 0.00 | 0.00 | 100 | 958.2 |
| 20260508075605 | 49 | 30 | 2.0 | 4.0 | 0.00 | 0.00 | 0.00 | 100 | 958.3 |
| 20260508075505 | 49 | 46 | 2.0 | 4.0 | 0.00 | 0.00 | 0.00 | 100 | 958.2 |
| 20260508075402 | 49 | 42 | 2.0 | 4.0 | 0.00 | 0.00 | 0.00 | 100 | 958.3 |
| 20260508075159 | 49 | 37 | 2.0 | 4.0 | 0.00 | 0.00 | 0.00 | 100 | 958.1 |
| 20260508074956 | 49 | 31 | 3.0 | 5.0 | 0.00 | 0.00 | 0.00 | 100 | 958.2 |
| 20260508074855 | 49 | 37 | 3.0 | 5.0 | 0.00 | 0.00 | 0.00 | 100 | 958.2 |
| 20260508074753 | 49 | 25 | 3.0 | 5.0 | 0.00 | 0.00 | 0.00 | 100 | 958.2 |
| 20260508074550 | 49 | 15 | 4.0 | 8.0 | 0.00 | 0.00 | 0.00 | 100 | 958.1 |
| 20260508074346 | 49 | 10 | 4.0 | 8.0 | 0.00 | 0.00 | 0.00 | 100 | 958.1 |
| 20260508074246 | 49 | 11 | 4.0 | 6.0 | 0.00 | 0.00 | 0.00 | 100 | 958.1 |
| 20260508074144 | 49 | 9 | 5.0 | 8.0 | 0.00 | 0.00 | 0.00 | 100 | 958.1 |
| 20260508073941 | 48 | 4 | 6.0 | 10.0 | 0.00 | 0.00 | 0.00 | 100 | 958.2 |
| 20260508073738 | 49 | 6 | 6.0 | 10.0 | 0.00 | 0.00 | 0.00 | 100 | 958.1 |
| 20260508073637 | 49 | 5 | 6.0 | 10.0 | 0.00 | 0.00 | 0.00 | 100 | 958.1 |
| 20260508073535 | 49 | 7 | 6.0 | 9.0 | 0.00 | 0.00 | 0.00 | 100 | 958.0 |
| 20260508073333 | 49 | 15 | 5.0 | 9.0 | 0.00 | 0.00 | 0.00 | 100 | 958.1 |
| 20260508073129 | 49 | 33 | 4.0 | 7.0 | 0.00 | 0.00 | 0.00 | 100 | 958.1 |
| 20260508073029 | 49 | 23 | 4.0 | 8.0 | 0.00 | 0.00 | 0.00 | 100 | 958.0 |
| 20260508072926 | 49 | 17 | 5.0 | 8.0 | 0.00 | 0.00 | 0.00 | 100 | 958.0 |
| 20260508072724 | 49 | 5 | 6.0 | 9.0 | 0.00 | 0.00 | 0.00 | 100 | 958.0 |
| 20260508072521 | 49 | 2 | 5.0 | 9.0 | 0.00 | 0.00 | 0.00 | 100 | 958.0 |
| 20260508072420 | 49 | 9 | 5.0 | 8.0 | 0.00 | 0.00 | 0.00 | 100 | 958.0 |
| 20260508072318 | 49 | 20 | 4.0 | 6.0 | 0.00 | 0.00 | 0.00 | 100 | 957.9 |
| 20260508072115 | 49 | 29 | 4.0 | 6.0 | 0.00 | 0.00 | 0.00 | 100 | 957.9 |
| 20260508071912 | 49 | 18 | 5.0 | 7.0 | 0.00 | 0.00 | 0.00 | 100 | 958.0 |
| 20260508071810 | 49 | 12 | 5.0 | 7.0 | 0.00 | 0.00 | 0.00 | 100 | 957.9 |
| 20260508071708 | 49 | 16 | 4.0 | 7.0 | 0.00 | 0.00 | 0.00 | 100 | 957.9 |
| 20260508071505 | 49 | 18 | 4.0 | 7.0 | 0.00 | 0.00 | 0.00 | 100 | 957.8 |
| 20260508071302 | 49 | 29 | 4.0 | 6.0 | 0.00 | 0.00 | 0.00 | 100 | 957.8 |
| 20260508071201 | 49 | 33 | 4.0 | 7.0 | 0.00 | 0.00 | 0.00 | 100 | 957.8 |
| 20260508071059 | 49 | 35 | 4.0 | 7.0 | 0.00 | 0.00 | 0.00 | 100 | 957.8 |
| 20260508070856 | 49 | 19 | 4.0 | 7.0 | 0.00 | 0.00 | 0.00 | 100 | 957.8 |
| 20260508070652 | 49 | 7 | 5.0 | 10.0 | 0.00 | 0.00 | 0.00 | 100 | 957.7 |
| 20260508070552 | 49 | 3 | 6.0 | 10.0 | 0.00 | 0.00 | 0.00 | 100 | 957.7 |
| 20260508070449 | 49 | 2 | 6.0 | 10.0 | 0.00 | 0.00 | 0.00 | 100 | 957.8 |
| 20260508070247 | 49 | 2 | 7.0 | 11.0 | 0.00 | 0.00 | 0.00 | 100 | 957.7 |
| 20260508070043 | 49 | 6 | 6.0 | 11.0 | 0.00 | 0.00 | 0.00 | 100 | 957.7 |
| 20260508065943 | 49 | 7 | 5.0 | 11.0 | 0.00 | 0.00 | 0.00 | 100 | 957.7 |
| 20260508065840 | 50 | 8 | 5.0 | 7.0 | 0.00 | 0.00 | 0.00 | 100 | 957.6 |
| 20260508065638 | 49 | 8 | 5.0 | 8.0 | 0.00 | 0.00 | 0.00 | 100 | 957.6 |
| 20260508065435 | 49 | 4 | 6.0 | 11.0 | 0.00 | 0.00 | 0.00 | 100 | 957.7 |
| 20260508065334 | 49 | 1 | 6.0 | 11.0 | 0.00 | 0.00 | 0.00 | 100 | 957.6 |
| 20260508065231 | 50 | 1 | 7.0 | 11.0 | 0.00 | 0.00 | 0.00 | 100 | 957.7 |
| 20260508065028 | 49 | 5 | 6.0 | 10.0 | 0.00 | 0.00 | 0.00 | 100 | 957.5 |
| 20260508064824 | 50 | 6 | 6.0 | 10.0 | 0.00 | 0.00 | 0.00 | 100 | 957.6 |
| 20260508064724 | 50 | 6 | 6.0 | 10.0 | 0.00 | 0.00 | 0.00 | 100 | 957.6 |
| 20260508064621 | 50 | 9 | 6.0 | 10.0 | 0.00 | 0.00 | 0.00 | 100 | 957.5 |
| 20260508064417 | 50 | 12 | 6.0 | 8.0 | 0.00 | 0.00 | 0.00 | 100 | 957.5 |
| 20260508064214 | 49 | 6 | 6.0 | 9.0 | 0.00 | 0.00 | 0.00 | 100 | 957.4 |
| 20260508064114 | 49 | 6 | 5.0 | 9.0 | 0.00 | 0.00 | 0.00 | 100 | 957.4 |
| 20260508064011 | 49 | 7 | 5.0 | 9.0 | 0.00 | 0.00 | 0.00 | 100 | 957.5 |
| 20260508063808 | 49 | 2 | 6.0 | 11.0 | 0.00 | 0.00 | 0.00 | 100 | 957.4 |
| 20260508063605 | 49 | 358 | 6.0 | 11.0 | 0.00 | 0.00 | 0.00 | 100 | 957.5 |
| 20260508063504 | 49 | 358 | 6.0 | 11.0 | 0.00 | 0.00 | 0.00 | 100 | 957.5 |
| 20260508063402 | 49 | 0 | 7.0 | 11.0 | 0.00 | 0.00 | 0.00 | 100 | 957.4 |
| 20260508063159 | 49 | 3 | 7.0 | 11.0 | 0.00 | 0.00 | 0.00 | 100 | 957.4 |
| 20260508062955 | 49 | 3 | 7.0 | 11.0 | 0.00 | 0.00 | 0.00 | 100 | 957.5 |
| 20260508062854 | 48 | 2 | 8.0 | 11.0 | 0.00 | 0.00 | 0.00 | 100 | 957.5 |
| 20260508062752 | 48 | 0 | 8.0 | 11.0 | 0.00 | 0.00 | 0.00 | 100 | 957.4 |
| 20260508062549 | 48 | 358 | 8.0 | 10.0 | 0.00 | 0.00 | 0.00 | 100 | 957.3 |
| 20260508062346 | 48 | 355 | 8.0 | 13.0 | 0.00 | 0.00 | 0.00 | 100 | 957.4 |
| 20260508062246 | 48 | 358 | 8.0 | 13.0 | 0.00 | 0.00 | 0.00 | 100 | 957.4 |
| 20260508062143 | 48 | 1 | 8.0 | 13.0 | 0.00 | 0.00 | 0.00 | 100 | 957.4 |
| 20260508061940 | 48 | 4 | 7.0 | 11.0 | 0.00 | 0.00 | 0.00 | 100 | 957.4 |
| 20260508061737 | 49 | 0 | 7.0 | 11.0 | 0.00 | 0.00 | 0.00 | 100 | 957.4 |
| 20260508061636 | 49 | 359 | 7.0 | 11.0 | 0.00 | 0.00 | 0.00 | 100 | 957.3 |
| 20260508061534 | 49 | 357 | 7.0 | 11.0 | 0.00 | 0.00 | 0.00 | 100 | 957.2 |
| 20260508061331 | 49 | 356 | 6.0 | 10.0 | 0.00 | 0.00 | 0.00 | 100 | 957.3 |
| 20260508061128 | 49 | 356 | 7.0 | 11.0 | 0.00 | 0.00 | 0.00 | 100 | 957.3 |
| 20260508061028 | 49 | 358 | 7.0 | 11.0 | 0.00 | 0.00 | 0.00 | 100 | 957.4 |
| 20260508060925 | 49 | 356 | 7.0 | 11.0 | 0.00 | 0.00 | 0.00 | 100 | 957.4 |
| 20260508060722 | 48 | 357 | 8.0 | 11.0 | 0.00 | 0.00 | 0.00 | 100 | 957.4 |
| 20260508060519 | 48 | 359 | 8.0 | 12.0 | 0.00 | 0.00 | 0.00 | 100 | 957.4 |
| 20260508060418 | 48 | 0 | 8.0 | 12.0 | 0.00 | 0.00 | 0.00 | 100 | 957.4 |
| 20260508060316 | 48 | 1 | 9.0 | 12.0 | 0.00 | 0.00 | 0.00 | 100 | 957.4 |
| 20260508060112 | 47 | 3 | 9.0 | 12.0 | 0.00 | 0.00 | 0.00 | 100 | 957.3 |
| 20260508055909 | 48 | 1 | 9.0 | 12.0 | 0.00 | 0.00 | 0.00 | 100 | 957.4 |
| 20260508055809 | 47 | 0 | 10.0 | 12.0 | 0.00 | 0.00 | 0.00 | 100 | 957.4 |
| 20260508055706 | 47 | 359 | 10.0 | 13.0 | 0.00 | 0.00 | 0.00 | 100 | 957.4 |
| 20260508055502 | 47 | 2 | 10.0 | 13.0 | 0.00 | 0.00 | 0.00 | 100 | 957.4 |
| 20260508055259 | 47 | 3 | 10.0 | 14.0 | 0.00 | 0.00 | 0.00 | 100 | 957.4 |
| 20260508055158 | 47 | 2 | 10.0 | 14.0 | 0.00 | 0.00 | 0.00 | 100 | 957.4 |
| 20260508055056 | 47 | 1 | 10.0 | 14.0 | 0.00 | 0.00 | 0.00 | 100 | 957.3 |
| 20260508054853 | 47 | 2 | 11.0 | 14.0 | 0.00 | 0.00 | 0.00 | 100 | 957.3 |
| 20260508054637 | 47 | 3 | 10.0 | 13.0 | 0.00 | 0.00 | 0.00 | 100 | 957.3 |
| 20260508054536 | 47 | 2 | 9.0 | 12.0 | 0.00 | 0.00 | 0.00 | 100 | 957.3 |
| 20260508054434 | 47 | 3 | 9.0 | 12.0 | 0.00 | 0.00 | 0.00 | 100 | 957.3 |
| 20260508054231 | 47 | 3 | 9.0 | 13.0 | 0.00 | 0.00 | 0.00 | 100 | 957.3 |
| 20260508054027 | 47 | 2 | 10.0 | 14.0 | 0.00 | 0.00 | 0.00 | 100 | 957.3 |
| 20260508053927 | 47 | 357 | 10.0 | 14.0 | 0.00 | 0.00 | 0.00 | 100 | 957.3 |
| 20260508053824 | 47 | 357 | 10.0 | 14.0 | 0.00 | 0.00 | 0.00 | 100 | 957.4 |
| 20260508053622 | 47 | 0 | 10.0 | 14.0 | 0.00 | 0.00 | 0.00 | 100 | 957.3 |
| 20260508053418 | 47 | 4 | 10.0 | 14.0 | 0.00 | 0.00 | 0.00 | 100 | 957.3 |
| 20260508053318 | 47 | 4 | 11.0 | 14.0 | 0.00 | 0.00 | 0.00 | 100 | 957.3 |
| 20260508053216 | 47 | 3 | 10.0 | 14.0 | 0.00 | 0.00 | 0.00 | 100 | 957.3 |
| 20260508053012 | 47 | 1 | 10.0 | 14.0 | 0.00 | 0.00 | 0.00 | 100 | 957.3 |
| 20260508052809 | 48 | 2 | 9.0 | 12.0 | 0.00 | 0.00 | 0.00 | 100 | 957.2 |
| 20260508052708 | 47 | 2 | 9.0 | 15.0 | 0.00 | 0.00 | 0.00 | 100 | 957.2 |
| 20260508052606 | 47 | 1 | 9.0 | 15.0 | 0.00 | 0.00 | 0.00 | 100 | 957.3 |
| 20260508052403 | 48 | 359 | 9.0 | 15.0 | 0.00 | 0.00 | 0.00 | 100 | 957.1 |
| 20260508052201 | 48 | 358 | 9.0 | 14.0 | 0.00 | 0.00 | 0.00 | 100 | 957.3 |
| 20260508052100 | 48 | 355 | 9.0 | 14.0 | 0.00 | 0.00 | 0.00 | 100 | 957.3 |
| 20260508051958 | 48 | 354 | 8.0 | 13.0 | 0.00 | 0.00 | 0.00 | 100 | 957.1 |
| 20260508051755 | 48 | 352 | 8.0 | 12.0 | 0.00 | 0.00 | 0.00 | 100 | 957.2 |
| 20260508051552 | 48 | 357 | 9.0 | 14.0 | 0.00 | 0.00 | 0.00 | 100 | 957.2 |
| 20260508051451 | 48 | 359 | 9.0 | 14.0 | 0.00 | 0.00 | 0.00 | 100 | 957.1 |
| 20260508051349 | 48 | 1 | 9.0 | 14.0 | 0.00 | 0.00 | 0.00 | 100 | 957.1 |
| 20260508051146 | 48 | 2 | 9.0 | 12.0 | 0.00 | 0.00 | 0.00 | 100 | 957.2 |
| 20260508050943 | 48 | 0 | 7.0 | 12.0 | 0.00 | 0.00 | 0.00 | 100 | 957.0 |
| 20260508050842 | 48 | 1 | 7.0 | 11.0 | 0.00 | 0.00 | 0.00 | 100 | 957.1 |
| 20260508050740 | 48 | 0 | 7.0 | 11.0 | 0.00 | 0.00 | 0.00 | 100 | 957.0 |
| 20260508050536 | 48 | 0 | 6.0 | 11.0 | 0.00 | 0.00 | 0.00 | 100 | 957.0 |
| 20260508050333 | 48 | 359 | 5.0 | 8.0 | 0.00 | 0.00 | 0.00 | 100 | 957.0 |
| 20260508050232 | 48 | 356 | 4.0 | 7.0 | 0.00 | 0.00 | 0.00 | 100 | 957.0 |
| 20260508050130 | 48 | 350 | 4.0 | 7.0 | 0.00 | 0.00 | 0.00 | 100 | 956.9 |
| 20260508045928 | 49 | 354 | 5.0 | 9.0 | 0.00 | 0.00 | 0.00 | 100 | 957.0 |
| 20260508045724 | 49 | 2 | 5.0 | 9.0 | 0.00 | 0.00 | 0.00 | 100 | 957.1 |
| 20260508045623 | 48 | 0 | 4.0 | 9.0 | 0.00 | 0.00 | 0.00 | 100 | 956.9 |
| 20260508045521 | 49 | 352 | 4.0 | 9.0 | 0.00 | 0.00 | 0.00 | 100 | 956.8 |
| 20260508045318 | 49 | 350 | 2.0 | 4.0 | 0.00 | 0.00 | 0.00 | 100 | 956.9 |
| 20260508045115 | 49 | 5 | 2.0 | 4.0 | 0.00 | 0.00 | 0.00 | 100 | 957.0 |
| 20260508045014 | 49 | 9 | 2.0 | 3.0 | 0.00 | 0.00 | 0.00 | 100 | 957.0 |
| 20260508044912 | 49 | 357 | 2.0 | 3.0 | 0.00 | 0.00 | 0.00 | 100 | 957.1 |
| 20260508044710 | 49 | 333 | 2.0 | 4.0 | 0.00 | 0.00 | 0.00 | 100 | 956.9 |
| 20260508044507 | 49 | 325 | 2.0 | 4.0 | 0.00 | 0.00 | 0.00 | 100 | 957.0 |
| 20260508044406 | 49 | 322 | 2.0 | 4.0 | 0.00 | 0.00 | 0.00 | 100 | 956.9 |
| 20260508044304 | 50 | 313 | 2.0 | 3.0 | 0.00 | 0.00 | 0.00 | 100 | 957.1 |
| 20260508044100 | 50 | 0 | 0.0 | 2.0 | 0.00 | 0.00 | 0.00 | 100 | 957.0 |
| 20260508043857 | 50 | 0 | 0.0 | 1.0 | 0.00 | 0.00 | 0.00 | 100 | 956.9 |
| 20260508043757 | 50 | 0 | 0.0 | 1.0 | 0.00 | 0.00 | 0.00 | 100 | 956.9 |
| 20260508043655 | 50 | 0 | 0.0 | 2.0 | 0.00 | 0.00 | 0.00 | 100 | 957.0 |
| 20260508043452 | 49 | 156 | 1.0 | 2.0 | 0.00 | 0.00 | 0.00 | 100 | 956.8 |
| 20260508043249 | 49 | 165 | 1.0 | 2.0 | 0.00 | 0.00 | 0.00 | 100 | 956.8 |
| 20260508043149 | 49 | 0 | 1.0 | 2.0 | 0.00 | 0.00 | 0.00 | 100 | 956.9 |
| 20260508043046 | 49 | 0 | 0.0 | 2.0 | 0.00 | 0.00 | 0.00 | 100 | 956.8 |
| 20260508042843 | 49 | 0 | 1.0 | 3.0 | 0.00 | 0.00 | 0.00 | 100 | 956.9 |
| 20260508042640 | 49 | 176 | 1.0 | 3.0 | 0.00 | 0.00 | 0.00 | 100 | 956.8 |
| 20260508042539 | 49 | 171 | 2.0 | 3.0 | 0.00 | 0.00 | 0.00 | 100 | 956.9 |
| 20260508042437 | 49 | 165 | 2.0 | 3.0 | 0.00 | 0.00 | 0.00 | 100 | 956.8 |
| 20260508042234 | 49 | 153 | 2.0 | 3.0 | 0.00 | 0.00 | 0.00 | 100 | 956.7 |
| 20260508042031 | 49 | 0 | 1.0 | 2.0 | 0.00 | 0.00 | 0.00 | 100 | 956.9 |
| 20260508041930 | 49 | 0 | 0.0 | 2.0 | 0.00 | 0.00 | 0.00 | 100 | 956.8 |
| 20260508041828 | 49 | 0 | 0.0 | 1.0 | 0.00 | 0.00 | 0.00 | 100 | 956.9 |
| 20260508041625 | 49 | 0 | 0.0 | 1.0 | 0.00 | 0.00 | 0.00 | 100 | 956.9 |
| 20260508041421 | 49 | 0 | 1.0 | 2.0 | 0.00 | 0.00 | 0.00 | 100 | 957.0 |
| 20260508041320 | 49 | 295 | 1.0 | 2.0 | 0.00 | 0.00 | 0.00 | 100 | 956.9 |
| 20260508041218 | 49 | 297 | 1.0 | 2.0 | 0.00 | 0.00 | 0.00 | 100 | 956.9 |
| 20260508041015 | 49 | 290 | 1.0 | 3.0 | 0.00 | 0.00 | 0.00 | 100 | 956.9 |
| 20260508040811 | 49 | 282 | 2.0 | 3.0 | 0.00 | 0.00 | 0.00 | 100 | 956.8 |
| 20260508040711 | 49 | 282 | 2.0 | 3.0 | 0.00 | 0.00 | 0.00 | 100 | 956.9 |
| 20260508040608 | 49 | 283 | 2.0 | 3.0 | 0.00 | 0.00 | 0.00 | 100 | 956.8 |
| 20260508040405 | 48 | 279 | 2.0 | 3.0 | 0.00 | 0.00 | 0.00 | 100 | 956.8 |
| 20260508040202 | 48 | 281 | 2.0 | 3.0 | 0.00 | 0.00 | 0.00 | 100 | 956.8 |
| 20260508040101 | 48 | 289 | 2.0 | 3.0 | 0.00 | 0.00 | 0.00 | 100 | 956.8 |
| 20260508035959 | 48 | 299 | 2.0 | 3.0 | 0.00 | 0.00 | 0.00 | 100 | 956.8 |
| 20260508035756 | 48 | 320 | 2.0 | 3.0 | 0.00 | 0.00 | 0.00 | 100 | 956.7 |
| 20260508035552 | 48 | 336 | 2.0 | 3.0 | 0.00 | 0.00 | 0.00 | 100 | 956.6 |
| 20260508035452 | 48 | 341 | 2.0 | 3.0 | 0.00 | 0.00 | 0.00 | 100 | 956.6 |
| 20260508035350 | 48 | 339 | 2.0 | 3.0 | 0.00 | 0.00 | 0.00 | 100 | 956.7 |
| 20260508035147 | 48 | 335 | 2.0 | 3.0 | 0.00 | 0.00 | 0.00 | 100 | 956.7 |
| 20260508034944 | 48 | 328 | 2.0 | 3.0 | 0.00 | 0.00 | 0.00 | 100 | 956.6 |
| 20260508034843 | 48 | 322 | 2.0 | 3.0 | 0.00 | 0.00 | 0.00 | 100 | 956.6 |
| 20260508034741 | 48 | 321 | 2.0 | 4.0 | 0.00 | 0.00 | 0.00 | 100 | 956.7 |
| 20260508034537 | 48 | 315 | 3.0 | 4.0 | 0.00 | 0.00 | 0.00 | 100 | 956.7 |
| 20260508034334 | 48 | 314 | 3.0 | 4.0 | 0.00 | 0.00 | 0.00 | 100 | 956.7 |
| 20260508034234 | 48 | 318 | 3.0 | 4.0 | 0.00 | 0.00 | 0.00 | 100 | 956.6 |
| 20260508034131 | 48 | 321 | 3.0 | 4.0 | 0.00 | 0.00 | 0.00 | 100 | 956.7 |
| 20260508033928 | 48 | 321 | 3.0 | 4.0 | 0.00 | 0.00 | 0.00 | 100 | 956.6 |
| 20260508033725 | 48 | 313 | 3.0 | 5.0 | 0.00 | 0.00 | 0.00 | 100 | 956.6 |
| 20260508033624 | 48 | 313 | 4.0 | 5.0 | 0.00 | 0.00 | 0.00 | 100 | 956.6 |
| 20260508033522 | 48 | 309 | 4.0 | 5.0 | 0.00 | 0.00 | 0.00 | 100 | 956.6 |
| 20260508033319 | 49 | 299 | 2.0 | 5.0 | 0.00 | 0.00 | 0.00 | 100 | 956.5 |
| 20260508033116 | 49 | 0 | 1.0 | 4.0 | 0.00 | 0.00 | 0.00 | 100 | 956.5 |
| 20260508033015 | 49 | 0 | 0.0 | 2.0 | 0.00 | 0.00 | 0.00 | 100 | 956.5 |
| 20260508032913 | 49 | 0 | 0.0 | 2.0 | 0.00 | 0.00 | 0.00 | 100 | 956.5 |
| 20260508032710 | 49 | 0 | 0.0 | 2.0 | 0.00 | 0.00 | 0.00 | 100 | 956.5 |
| 20260508032507 | 49 | 0 | 0.0 | 1.0 | 0.00 | 0.00 | 0.00 | 100 | 956.4 |
| 20260508032406 | 49 | 0 | 0.0 | 1.0 | 0.00 | 0.00 | 0.00 | 100 | 956.4 |
| 20260508032306 | 49 | 0 | 0.0 | 1.0 | 0.00 | 0.00 | 0.00 | 100 | 956.5 |
| 20260508032101 | 49 | 0 | 0.0 | 1.0 | 0.00 | 0.00 | 0.00 | 100 | 956.5 |
| 20260508031857 | 49 | 0 | 0.0 | 1.0 | 0.00 | 0.00 | 0.00 | 100 | 956.5 |
| 20260508031756 | 49 | 0 | 0.0 | 1.0 | 0.00 | 0.00 | 0.00 | 100 | 956.4 |
| 20260508031654 | 49 | 0 | 0.0 | 1.0 | 0.00 | 0.00 | 0.00 | 100 | 956.4 |
| 20260508031450 | 49 | 0 | 0.0 | 2.0 | 0.00 | 0.00 | 0.00 | 100 | 956.4 |
| 20260508031247 | 49 | 0 | 0.0 | 4.0 | 0.00 | 0.00 | 0.00 | 100 | 956.4 |
| 20260508031146 | 49 | 0 | 0.0 | 4.0 | 0.00 | 0.00 | 0.00 | 100 | 956.4 |
| 20260508031043 | 49 | 0 | 0.0 | 4.0 | 0.00 | 0.00 | 0.00 | 100 | 956.5 |
| 20260508030840 | 49 | 0 | 0.0 | 2.0 | 0.00 | 0.00 | 0.00 | 100 | 956.4 |
| 20260508030627 | 49 | 0 | 0.0 | 3.0 | 0.00 | 0.00 | 0.00 | 100 | 956.4 |
| 20260508030526 | 49 | 0 | 1.0 | 3.0 | 0.00 | 0.00 | 0.00 | 100 | 956.3 |
| 20260508030423 | 49 | 0 | 1.0 | 3.0 | 0.00 | 0.00 | 0.00 | 100 | 956.3 |
| 20260508030220 | 49 | 0 | 1.0 | 4.0 | 0.00 | 0.00 | 0.00 | 100 | 956.3 |
| 20260508030017 | 49 | 0 | 1.0 | 4.0 | 0.00 | 0.00 | 0.00 | 100 | 956.3 |
| 20260508025916 | 49 | 0 | 1.0 | 4.0 | 0.00 | 0.00 | 0.00 | 100 | 956.3 |
| 20260508025814 | 49 | 0 | 1.0 | 3.0 | 0.00 | 0.00 | 0.00 | 100 | 956.4 |
| 20260508025610 | 49 | 0 | 1.0 | 2.0 | 0.00 | 0.00 | 0.00 | 100 | 956.3 |
| 20260508025407 | 49 | 0 | 1.0 | 4.0 | 0.00 | 0.00 | 0.00 | 100 | 956.3 |
| 20260508025306 | 49 | 0 | 1.0 | 4.0 | 0.00 | 0.00 | 0.00 | 100 | 956.4 |
| 20260508025204 | 49 | 0 | 1.0 | 4.0 | 0.00 | 0.00 | 0.00 | 100 | 956.2 |
| 20260508025001 | 49 | 0 | 1.0 | 3.0 | 0.00 | 0.00 | 0.00 | 100 | 956.2 |
| 20260508024758 | 49 | 0 | 0.0 | 3.0 | 0.00 | 0.00 | 0.00 | 100 | 956.2 |
| 20260508024657 | 49 | 0 | 0.0 | 2.0 | 0.00 | 0.00 | 0.00 | 100 | 956.2 |
| 20260508024554 | 49 | 0 | 0.0 | 2.0 | 0.00 | 0.00 | 0.00 | 100 | 956.2 |
| 20260508024351 | 50 | 0 | 0.0 | 2.0 | 0.00 | 0.00 | 0.00 | 100 | 956.2 |
| 20260508024147 | 50 | 0 | 0.0 | 2.0 | 0.00 | 0.00 | 0.00 | 100 | 956.3 |
| 20260508024047 | 50 | 0 | 0.0 | 2.0 | 0.00 | 0.00 | 0.00 | 100 | 956.2 |
| 20260508023945 | 50 | 0 | 0.0 | 2.0 | 0.00 | 0.00 | 0.00 | 100 | 956.2 |
| 20260508023743 | 50 | 0 | 0.0 | 2.0 | 0.00 | 0.00 | 0.00 | 100 | 956.2 |
| 20260508023540 | 50 | 0 | 0.0 | 2.0 | 0.00 | 0.00 | 0.00 | 100 | 956.2 |
| 20260508023439 | 50 | 0 | 0.0 | 2.0 | 0.00 | 0.00 | 0.00 | 100 | 956.3 |
| 20260508023337 | 50 | 0 | 0.0 | 2.0 | 0.00 | 0.00 | 0.00 | 100 | 956.2 |
| 20260508023134 | 50 | 0 | 0.0 | 2.0 | 0.00 | 0.00 | 0.00 | 100 | 956.3 |
| 20260508022930 | 50 | 0 | 0.0 | 1.0 | 0.00 | 0.00 | 0.00 | 100 | 956.3 |
| 20260508022829 | 50 | 0 | 0.0 | 1.0 | 0.00 | 0.00 | 0.00 | 100 | 956.2 |
| 20260508022727 | 50 | 0 | 0.0 | 1.0 | 0.00 | 0.00 | 0.00 | 100 | 956.1 |
| 20260508022524 | 50 | 0 | 0.0 | 3.0 | 0.00 | 0.00 | 0.00 | 100 | 956.2 |
| 20260508022321 | 50 | 0 | 0.0 | 3.0 | 0.00 | 0.00 | 0.00 | 100 | 956.1 |
| 20260508022221 | 50 | 0 | 0.0 | 1.0 | 0.00 | 0.00 | 0.00 | 100 | 956.2 |
| 20260508022119 | 50 | 0 | 0.0 | 3.0 | 0.00 | 0.00 | 0.00 | 100 | 956.2 |
| 20260508021915 | 50 | 0 | 1.0 | 3.0 | 0.00 | 0.00 | 0.00 | 100 | 956.2 |
| 20260508021713 | 50 | 0 | 0.0 | 2.0 | 0.00 | 0.00 | 0.00 | 100 | 956.2 |
| 20260508021612 | 50 | 0 | 0.0 | 1.0 | 0.00 | 0.00 | 0.00 | 100 | 956.2 |
| 20260508021509 | 50 | 0 | 0.0 | 2.0 | 0.00 | 0.00 | 0.00 | 100 | 956.2 |
| 20260508021307 | 50 | 270 | 1.0 | 2.0 | 0.00 | 0.00 | 0.00 | 100 | 956.3 |
| 20260508021104 | 50 | 0 | 0.0 | 2.0 | 0.00 | 0.00 | 0.00 | 100 | 956.2 |
| 20260508021004 | 50 | 0 | 0.0 | 2.0 | 0.00 | 0.00 | 0.00 | 100 | 956.2 |
| 20260508020901 | 50 | 0 | 0.0 | 1.0 | 0.00 | 0.00 | 0.00 | 100 | 956.2 |
| 20260508020659 | 50 | 0 | 0.0 | 1.0 | 0.00 | 0.00 | 0.00 | 100 | 956.2 |
| 20260508020455 | 50 | 0 | 0.0 | 1.0 | 0.00 | 0.00 | 0.00 | 100 | 956.2 |
| 20260508020353 | 50 | 0 | 0.0 | 2.0 | 0.00 | 0.00 | 0.00 | 100 | 956.1 |
| 20260508020252 | 50 | 0 | 0.0 | 2.0 | 0.00 | 0.00 | 0.00 | 100 | 956.1 |
| 20260508020049 | 50 | 0 | 0.0 | 2.0 | 0.00 | 0.00 | 0.00 | 100 | 956.1 |
| 20260508015845 | 50 | 0 | 0.0 | 2.0 | 0.00 | 0.00 | 0.00 | 100 | 956.1 |
| 20260508015744 | 50 | 0 | 0.0 | 2.0 | 0.00 | 0.00 | 0.00 | 100 | 956.1 |
| 20260508015642 | 50 | 0 | 0.0 | 2.0 | 0.00 | 0.00 | 0.00 | 100 | 956.1 |
| 20260508015439 | 50 | 0 | 0.0 | 1.0 | 0.00 | 0.00 | 0.00 | 100 | 956.1 |
| 20260508015237 | 50 | 0 | 0.0 | 1.0 | 0.00 | 0.00 | 0.00 | 100 | 956.2 |
| 20260508015136 | 50 | 0 | 0.0 | 2.0 | 0.00 | 0.00 | 0.00 | 100 | 956.1 |
| 20260508015034 | 50 | 0 | 0.0 | 2.0 | 0.00 | 0.00 | 0.00 | 100 | 956.1 |
| 20260508014831 | 50 | 0 | 0.0 | 2.0 | 0.00 | 0.00 | 0.00 | 100 | 956.1 |
| 20260508014628 | 50 | 0 | 0.0 | 2.0 | 0.00 | 0.00 | 0.00 | 100 | 956.2 |
| 20260508014527 | 50 | 0 | 0.0 | 2.0 | 0.00 | 0.00 | 0.00 | 100 | 956.2 |
| 20260508014425 | 50 | 0 | 0.0 | 2.0 | 0.00 | 0.00 | 0.00 | 100 | 956.2 |
| 20260508014222 | 50 | 0 | 0.0 | 2.0 | 0.00 | 0.00 | 0.00 | 100 | 956.1 |
| 20260508014019 | 50 | 0 | 0.0 | 1.0 | 0.00 | 0.00 | 0.00 | 100 | 956.2 |
| 20260508013918 | 50 | 0 | 0.0 | 1.0 | 0.00 | 0.00 | 0.00 | 100 | 956.2 |
| 20260508013816 | 50 | 0 | 0.0 | 1.0 | 0.00 | 0.00 | 0.00 | 100 | 956.2 |
| 20260508013612 | 50 | 0 | 0.0 | 1.0 | 0.00 | 0.00 | 0.00 | 100 | 956.2 |
| 20260508013409 | 50 | 0 | 0.0 | 1.0 | 0.00 | 0.00 | 0.00 | 100 | 956.2 |
| 20260508013308 | 50 | 0 | 0.0 | 1.0 | 0.00 | 0.00 | 0.00 | 100 | 956.1 |
| 20260508013206 | 50 | 0 | 0.0 | 1.0 | 0.00 | 0.00 | 0.00 | 100 | 956.2 |
| 20260508013002 | 50 | 91 | 1.0 | 1.0 | 0.00 | 0.00 | 0.00 | 100 | 956.1 |
| 20260508012759 | 50 | 82 | 1.0 | 1.0 | 0.00 | 0.00 | 0.00 | 100 | 956.0 |
| 20260508012658 | 50 | 96 | 1.0 | 1.0 | 0.00 | 0.00 | 0.00 | 100 | 956.0 |
| 20260508012556 | 50 | 116 | 1.0 | 1.0 | 0.00 | 0.00 | 0.00 | 100 | 956.0 |
| 20260508012353 | 50 | 145 | 1.0 | 1.0 | 0.00 | 0.00 | 0.00 | 100 | 956.1 |
| 20260508012150 | 50 | 0 | 0.0 | 2.0 | 0.00 | 0.00 | 0.00 | 100 | 956.1 |
| 20260508012049 | 50 | 0 | 0.0 | 1.0 | 0.00 | 0.00 | 0.00 | 100 | 956.2 |
| 20260508011946 | 50 | 0 | 0.0 | 1.0 | 0.00 | 0.00 | 0.00 | 100 | 956.1 |
| 20260508011743 | 50 | 0 | 0.0 | 1.0 | 0.00 | 0.00 | 0.00 | 100 | 956.1 |
| 20260508011540 | 50 | 0 | 0.0 | 2.0 | 0.00 | 0.00 | 0.00 | 100 | 956.2 |
| 20260508011439 | 50 | 263 | 1.0 | 2.0 | 0.00 | 0.00 | 0.00 | 100 | 956.2 |
| 20260508011337 | 50 | 274 | 1.0 | 2.0 | 0.00 | 0.00 | 0.00 | 100 | 956.2 |
| 20260508011134 | 49 | 286 | 1.0 | 2.0 | 0.00 | 0.00 | 0.00 | 100 | 956.1 |
| 20260508010931 | 49 | 308 | 1.0 | 3.0 | 0.00 | 0.00 | 0.00 | 100 | 956.2 |
| 20260508010830 | 49 | 309 | 2.0 | 3.0 | 0.00 | 0.00 | 0.00 | 100 | 956.2 |
| 20260508010727 | 50 | 311 | 2.0 | 3.0 | 0.00 | 0.00 | 0.00 | 100 | 956.1 |
| 20260508010524 | 49 | 318 | 2.0 | 3.0 | 0.00 | 0.00 | 0.00 | 100 | 956.2 |
| 20260508010321 | 49 | 322 | 2.0 | 2.0 | 0.00 | 0.00 | 0.00 | 100 | 956.1 |
| 20260508010220 | 49 | 324 | 2.0 | 2.0 | 0.00 | 0.00 | 0.00 | 100 | 956.1 |
| 20260508010118 | 49 | 327 | 2.0 | 2.0 | 0.00 | 0.00 | 0.00 | 100 | 956.2 |
| 20260508005914 | 49 | 339 | 2.0 | 2.0 | 0.00 | 0.00 | 0.00 | 100 | 956.0 |